Wetterdaten: Sonntag, 03.02.2013
Datum Zeit Temp. Aussen +5cm Feuchte Auss BlattFeu 1 Luftdruck Regen Sonnenschein UV Solar Windben
03.02.2013 00:00 3,1 C 1,8 C 93 % 15 lf 1015,2 hPa 0,0 l/m 0 min 0,0 UV-I 0 W/m 2,6 km/h (1 Bft)
03.02.2013 00:02 3,1 C 1,8 C 93 % 15 lf 1015,2 hPa 0,0 l/m 0 min 0,0 UV-I 0 W/m 5,1 km/h (1 Bft)
03.02.2013 00:06 3,1 C 1,8 C 93 % 15 lf 1015,3 hPa 0,0 l/m 0 min 0,0 UV-I 0 W/m 5,1 km/h (1 Bft)
03.02.2013 00:08 3,1 C 1,8 C 93 % 15 lf 1015,3 hPa 0,0 l/m 0 min 0,0 UV-I 0 W/m 5,1 km/h (1 Bft)
03.02.2013 00:10 3,1 C 1,8 C 94 % 15 lf 1015,3 hPa 0,0 l/m 0 min 0,0 UV-I 0 W/m 10,3 km/h (2 Bft)
03.02.2013 00:12 3,1 C 1,8 C 94 % 15 lf 1015,4 hPa 0,0 l/m 0 min 0,0 UV-I 0 W/m 5,1 km/h (1 Bft)
03.02.2013 00:14 3,2 C 1,8 C 94 % 15 lf 1015,4 hPa 0,0 l/m 0 min 0,0 UV-I 0 W/m 10,3 km/h (2 Bft)
03.02.2013 00:16 3,2 C 1,8 C 94 % 15 lf 1015,4 hPa 0,0 l/m 0 min 0,0 UV-I 0 W/m 7,7 km/h (2 Bft)
03.02.2013 00:18 3,2 C 1,8 C 94 % 15 lf 1015,4 hPa 0,0 l/m 0 min 0,0 UV-I 0 W/m 10,3 km/h (2 Bft)
03.02.2013 00:20 3,2 C 1,8 C 94 % 15 lf 1015,4 hPa 0,0 l/m 0 min 0,0 UV-I 0 W/m 10,3 km/h (2 Bft)
03.02.2013 00:22 3,2 C 1,8 C 94 % 15 lf 1015,5 hPa 0,0 l/m 0 min 0,0 UV-I 0 W/m 5,1 km/h (1 Bft)
03.02.2013 00:24 3,2 C 1,8 C 94 % 15 lf 1015,5 hPa 0,0 l/m 0 min 0,0 UV-I 0 W/m 10,3 km/h (2 Bft)
03.02.2013 00:26 3,2 C 1,8 C 94 % 15 lf 1015,6 hPa 0,0 l/m 0 min 0,0 UV-I 0 W/m 2,6 km/h (1 Bft)
03.02.2013 00:28 3,2 C 1,8 C 94 % 15 lf 1015,6 hPa 0,0 l/m 0 min 0,0 UV-I 0 W/m 10,3 km/h (2 Bft)
03.02.2013 00:30 3,2 C 1,8 C 94 % 15 lf 1015,6 hPa 0,0 l/m 0 min 0,0 UV-I 0 W/m 10,3 km/h (2 Bft)
03.02.2013 00:32 3,2 C 1,8 C 94 % 14 lf 1015,6 hPa 0,0 l/m 0 min 0,0 UV-I 0 W/m 5,1 km/h (1 Bft)
03.02.2013 00:34 3,2 C 1,8 C 94 % 13 lf 1015,6 hPa 0,0 l/m 0 min 0,0 UV-I 0 W/m 5,1 km/h (1 Bft)
03.02.2013 00:36 3,2 C 1,8 C 93 % 10 lf 1015,8 hPa 0,0 l/m 0 min 0,0 UV-I 0 W/m 7,7 km/h (2 Bft)
03.02.2013 00:38 3,2 C 1,8 C 93 % 4 lf 1015,8 hPa 0,0 l/m 0 min 0,0 UV-I 0 W/m 0,0 km/h (0 Bft)
03.02.2013 00:40 3,3 C 1,8 C 93 % 1 lf 1015,8 hPa 0,0 l/m 0 min 0,0 UV-I 0 W/m 7,7 km/h (2 Bft)
03.02.2013 00:42 3,3 C 1,8 C 93 % 0 lf 1015,9 hPa 0,0 l/m 0 min 0,0 UV-I 0 W/m 7,7 km/h (2 Bft)
03.02.2013 00:44 3,3 C 1,8 C 93 % 0 lf 1015,9 hPa 0,0 l/m 0 min 0,0 UV-I 0 W/m 7,7 km/h (2 Bft)
03.02.2013 00:46 3,3 C 1,8 C 93 % 0 lf 1016,0 hPa 0,0 l/m 0 min 0,0 UV-I 0 W/m 0,0 km/h (0 Bft)
03.02.2013 00:48 3,3 C 1,8 C 93 % 0 lf 1016,1 hPa 0,0 l/m 0 min 0,0 UV-I 0 W/m 10,3 km/h (2 Bft)
03.02.2013 00:50 3,3 C 2,3 C 93 % 0 lf 1016,1 hPa 0,0 l/m 0 min 0,0 UV-I 0 W/m 10,3 km/h (2 Bft)
03.02.2013 00:52 3,3 C 1,8 C 93 % 0 lf 1016,1 hPa 0,0 l/m 0 min 0,0 UV-I 0 W/m 2,6 km/h (1 Bft)
03.02.2013 00:54 3,3 C 2,3 C 93 % 0 lf 1016,1 hPa 0,0 l/m 0 min 0,0 UV-I 0 W/m 7,7 km/h (2 Bft)
03.02.2013 00:56 3,3 C 2,3 C 93 % 0 lf 1016,4 hPa 0,0 l/m 0 min 0,0 UV-I 0 W/m 15,4 km/h (3 Bft)
03.02.2013 00:58 3,3 C 2,3 C 93 % 0 lf 1016,3 hPa 0,0 l/m 0 min 0,0 UV-I 0 W/m 5,1 km/h (1 Bft)
03.02.2013 01:00 3,3 C 2,3 C 93 % 0 lf 1016,4 hPa 0,0 l/m 0 min 0,0 UV-I 0 W/m 7,7 km/h (2 Bft)
03.02.2013 01:02 3,3 C 2,3 C 93 % 0 lf 1016,4 hPa 0,0 l/m 0 min 0,0 UV-I 0 W/m 10,3 km/h (2 Bft)
03.02.2013 01:06 3,3 C 2,3 C 93 % 0 lf 1016,4 hPa 0,0 l/m 0 min 0,0 UV-I 0 W/m 12,9 km/h (3 Bft)
03.02.2013 01:08 3,3 C 2,3 C 93 % 0 lf 1016,4 hPa 0,0 l/m 0 min 0,0 UV-I 0 W/m 12,9 km/h (3 Bft)
03.02.2013 01:10 3,3 C 2,3 C 93 % 0 lf 1016,4 hPa 0,0 l/m 0 min 0,0 UV-I 0 W/m 18,0 km/h (3 Bft)
03.02.2013 01:12 3,3 C 2,3 C 93 % 0 lf 1016,5 hPa 0,0 l/m 0 min 0,0 UV-I 0 W/m 15,4 km/h (3 Bft)
03.02.2013 01:14 3,3 C 2,3 C 93 % 0 lf 1016,5 hPa 0,0 l/m 0 min 0,0 UV-I 0 W/m 12,9 km/h (3 Bft)
03.02.2013 01:16 3,3 C 2,3 C 93 % 0 lf 1016,5 hPa 0,0 l/m 0 min 0,0 UV-I 0 W/m 5,1 km/h (1 Bft)
03.02.2013 01:18 3,3 C 2,3 C 93 % 0 lf 1016,5 hPa 0,0 l/m 0 min 0,0 UV-I 0 W/m 7,7 km/h (2 Bft)
03.02.2013 01:20 3,3 C 2,3 C 93 % 0 lf 1016,5 hPa 0,0 l/m 0 min 0,0 UV-I 0 W/m 12,9 km/h (3 Bft)
03.02.2013 01:22 3,3 C 2,3 C 93 % 0 lf 1016,5 hPa 0,0 l/m 0 min 0,0 UV-I 0 W/m 10,3 km/h (2 Bft)
03.02.2013 01:24 3,3 C 2,3 C 93 % 0 lf 1016,5 hPa 0,0 l/m 0 min 0,0 UV-I 0 W/m 2,6 km/h (1 Bft)
03.02.2013 01:26 3,3 C 2,3 C 93 % 0 lf 1016,5 hPa 0,0 l/m 0 min 0,0 UV-I 0 W/m 7,7 km/h (2 Bft)
03.02.2013 01:28 3,3 C 2,3 C 93 % 0 lf 1016,5 hPa 0,0 l/m 0 min 0,0 UV-I 0 W/m 5,1 km/h (1 Bft)
03.02.2013 01:30 3,3 C 2,3 C 93 % 0 lf 1016,5 hPa 0,0 l/m 0 min 0,0 UV-I 0 W/m 12,9 km/h (3 Bft)
03.02.2013 01:32 3,3 C 2,3 C 93 % 0 lf 1016,6 hPa 0,0 l/m 0 min 0,0 UV-I 0 W/m 10,3 km/h (2 Bft)
03.02.2013 01:34 3,3 C 2,3 C 93 % 0 lf 1016,6 hPa 0,0 l/m 0 min 0,0 UV-I 0 W/m 0,0 km/h (0 Bft)
03.02.2013 01:36 3,3 C 1,8 C 93 % 0 lf 1016,6 hPa 0,0 l/m 0 min 0,0 UV-I 0 W/m 2,6 km/h (1 Bft)
03.02.2013 01:38 3,3 C 1,8 C 93 % 0 lf 1016,6 hPa 0,0 l/m 0 min 0,0 UV-I 0 W/m 5,1 km/h (1 Bft)
03.02.2013 01:40 3,3 C 2,3 C 93 % 0 lf 1016,7 hPa 0,0 l/m 0 min 0,0 UV-I 0 W/m 0,0 km/h (0 Bft)
03.02.2013 01:42 3,3 C 2,3 C 93 % 0 lf 1016,6 hPa 0,0 l/m 0 min 0,0 UV-I 0 W/m 15,4 km/h (3 Bft)
03.02.2013 01:44 3,3 C 2,3 C 93 % 0 lf 1016,7 hPa 0,0 l/m 0 min 0,0 UV-I 0 W/m 7,7 km/h (2 Bft)
03.02.2013 01:46 3,3 C 2,3 C 93 % 0 lf 1016,7 hPa 0,0 l/m 0 min 0,0 UV-I 0 W/m 10,3 km/h (2 Bft)
03.02.2013 01:48 3,3 C 1,8 C 93 % 0 lf 1016,7 hPa 0,0 l/m 0 min 0,0 UV-I 0 W/m 10,3 km/h (2 Bft)
03.02.2013 01:50 3,3 C 2,3 C 93 % 0 lf 1016,7 hPa 0,0 l/m 0 min 0,0 UV-I 0 W/m 7,7 km/h (2 Bft)
03.02.2013 01:52 3,3 C 2,3 C 93 % 0 lf 1016,7 hPa 0,0 l/m 0 min 0,0 UV-I 0 W/m 10,3 km/h (2 Bft)
03.02.2013 01:54 3,3 C 2,3 C 93 % 0 lf 1016,8 hPa 0,0 l/m 0 min 0,0 UV-I 0 W/m 12,9 km/h (3 Bft)
03.02.2013 01:56 3,3 C 2,3 C 94 % 0 lf 1016,7 hPa 0,0 l/m 0 min 0,0 UV-I 0 W/m 7,7 km/h (2 Bft)
03.02.2013 01:58 3,3 C 2,3 C 94 % 0 lf 1016,8 hPa 0,0 l/m 0 min 0,0 UV-I 0 W/m 5,1 km/h (1 Bft)
03.02.2013 02:00 3,3 C 2,3 C 94 % 0 lf 1016,9 hPa 0,0 l/m 0 min 0,0 UV-I 0 W/m 5,1 km/h (1 Bft)
03.02.2013 02:02 3,3 C 2,3 C 94 % 0 lf 1017,1 hPa 0,0 l/m 0 min 0,0 UV-I 0 W/m 7,7 km/h (2 Bft)
03.02.2013 02:06 3,3 C 1,8 C 94 % 0 lf 1017,2 hPa 0,0 l/m 0 min 0,0 UV-I 0 W/m 10,3 km/h (2 Bft)
03.02.2013 02:08 3,2 C 2,3 C 94 % 0 lf 1017,1 hPa 0,0 l/m 0 min 0,0 UV-I 0 W/m 12,9 km/h (3 Bft)
03.02.2013 02:10 3,2 C 2,3 C 94 % 0 lf 1017,2 hPa 0,0 l/m 0 min 0,0 UV-I 0 W/m 10,3 km/h (2 Bft)
03.02.2013 02:12 3,2 C 2,3 C 94 % 0 lf 1017,2 hPa 0,0 l/m 0 min 0,0 UV-I 0 W/m 7,7 km/h (2 Bft)
03.02.2013 02:14 3,2 C 2,3 C 94 % 0 lf 1017,2 hPa 0,0 l/m 0 min 0,0 UV-I 0 W/m 10,3 km/h (2 Bft)
03.02.2013 02:16 3,2 C 2,3 C 94 % 0 lf 1017,2 hPa 0,0 l/m 0 min 0,0 UV-I 0 W/m 25,7 km/h (4 Bft)
03.02.2013 02:18 3,2 C 2,3 C 94 % 0 lf 1017,2 hPa 0,0 l/m 0 min 0,0 UV-I 0 W/m 12,9 km/h (3 Bft)
03.02.2013 02:20 3,2 C 2,3 C 94 % 0 lf 1017,3 hPa 0,0 l/m 0 min 0,0 UV-I 0 W/m 7,7 km/h (2 Bft)
03.02.2013 02:22 3,2 C 2,3 C 94 % 0 lf 1017,2 hPa 0,0 l/m 0 min 0,0 UV-I 0 W/m 0,0 km/h (0 Bft)
03.02.2013 02:24 3,2 C 2,3 C 94 % 0 lf 1017,2 hPa 0,0 l/m 0 min 0,0 UV-I 0 W/m 7,7 km/h (2 Bft)
03.02.2013 02:26 3,2 C 2,3 C 94 % 0 lf 1017,3 hPa 0,0 l/m 0 min 0,0 UV-I 0 W/m 10,3 km/h (2 Bft)
03.02.2013 02:28 3,2 C 2,3 C 94 % 0 lf 1017,3 hPa 0,0 l/m 0 min 0,0 UV-I 0 W/m 12,9 km/h (3 Bft)
03.02.2013 02:30 3,2 C 2,3 C 94 % 0 lf 1017,3 hPa 0,0 l/m 0 min 0,0 UV-I 0 W/m 12,9 km/h (3 Bft)
03.02.2013 02:32 3,2 C 2,3 C 94 % 0 lf 1017,3 hPa 0,0 l/m 0 min 0,0 UV-I 0 W/m 7,7 km/h (2 Bft)
03.02.2013 02:34 3,2 C 2,3 C 94 % 0 lf 1017,3 hPa 0,0 l/m 0 min 0,0 UV-I 0 W/m 7,7 km/h (2 Bft)
03.02.2013 02:36 3,2 C 2,3 C 94 % 0 lf 1017,2 hPa 0,0 l/m 0 min 0,0 UV-I 0 W/m 7,7 km/h (2 Bft)
03.02.2013 02:38 3,2 C 2,3 C 94 % 0 lf 1017,2 hPa 0,0 l/m 0 min 0,0 UV-I 0 W/m 7,7 km/h (2 Bft)
03.02.2013 02:40 3,2 C 2,3 C 94 % 0 lf 1017,3 hPa 0,0 l/m 0 min 0,0 UV-I 0 W/m 18,0 km/h (3 Bft)
03.02.2013 02:42 3,2 C 2,3 C 94 % 0 lf 1017,3 hPa 0,0 l/m 0 min 0,0 UV-I 0 W/m 7,7 km/h (2 Bft)
03.02.2013 02:44 3,2 C 2,3 C 94 % 0 lf 1017,4 hPa 0,0 l/m 0 min 0,0 UV-I 0 W/m 12,9 km/h (3 Bft)
03.02.2013 02:46 3,2 C 2,3 C 94 % 0 lf 1017,4 hPa 0,0 l/m 0 min 0,0 UV-I 0 W/m 2,6 km/h (1 Bft)
03.02.2013 02:48 3,2 C 2,3 C 94 % 0 lf 1017,5 hPa 0,0 l/m 0 min 0,0 UV-I 0 W/m 7,7 km/h (2 Bft)
03.02.2013 02:50 3,2 C 2,3 C 94 % 0 lf 1017,4 hPa 0,0 l/m 0 min 0,0 UV-I 0 W/m 7,7 km/h (2 Bft)
03.02.2013 02:52 3,2 C 2,3 C 94 % 0 lf 1017,4 hPa 0,0 l/m 0 min 0,0 UV-I 0 W/m 10,3 km/h (2 Bft)
03.02.2013 02:54 3,2 C 2,3 C 94 % 0 lf 1017,4 hPa 0,0 l/m 0 min 0,0 UV-I 0 W/m 5,1 km/h (1 Bft)
03.02.2013 02:56 3,2 C 2,3 C 94 % 0 lf 1017,5 hPa 0,0 l/m 0 min 0,0 UV-I 0 W/m 7,7 km/h (2 Bft)
03.02.2013 02:58 3,2 C 1,8 C 94 % 0 lf 1017,5 hPa 0,0 l/m 0 min 0,0 UV-I 0 W/m 2,6 km/h (1 Bft)
03.02.2013 03:00 3,2 C 1,8 C 94 % 0 lf 1017,5 hPa 0,0 l/m 0 min 0,0 UV-I 0 W/m 0,0 km/h (0 Bft)
03.02.2013 03:02 3,2 C 1,8 C 94 % 0 lf 1017,6 hPa 0,0 l/m 0 min 0,0 UV-I 0 W/m 5,1 km/h (1 Bft)
03.02.2013 03:06 3,2 C 1,8 C 94 % 0 lf 1017,7 hPa 0,0 l/m 0 min 0,0 UV-I 0 W/m 2,6 km/h (1 Bft)
03.02.2013 03:08 3,1 C 1,2 C 94 % 0 lf 1017,8 hPa 0,0 l/m 0 min 0,0 UV-I 0 W/m 15,4 km/h (3 Bft)
03.02.2013 03:10 3,1 C 1,2 C 93 % 0 lf 1017,8 hPa 0,0 l/m 0 min 0,0 UV-I 0 W/m 5,1 km/h (1 Bft)
03.02.2013 03:12 3,1 C 1,2 C 93 % 0 lf 1017,9 hPa 0,0 l/m 0 min 0,0 UV-I 0 W/m 5,1 km/h (1 Bft)
03.02.2013 03:14 3,1 C 1,2 C 93 % 0 lf 1018,0 hPa 0,0 l/m 0 min 0,0 UV-I 0 W/m 2,6 km/h (1 Bft)
03.02.2013 03:16 3,0 C 1,2 C 93 % 0 lf 1018,0 hPa 0,0 l/m 0 min 0,0 UV-I 0 W/m 10,3 km/h (2 Bft)
03.02.2013 03:18 2,9 C 1,2 C 93 % 0 lf 1018,0 hPa 0,0 l/m 0 min 0,0 UV-I 0 W/m 0,0 km/h (0 Bft)
03.02.2013 03:20 2,9 C 1,2 C 93 % 0 lf 1018,0 hPa 0,0 l/m 0 min 0,0 UV-I 0 W/m 2,6 km/h (1 Bft)
03.02.2013 03:22 2,9 C 1,2 C 93 % 0 lf 1018,0 hPa 0,0 l/m 0 min 0,0 UV-I 0 W/m 7,7 km/h (2 Bft)
03.02.2013 03:24 2,9 C 1,2 C 93 % 0 lf 1018,1 hPa 0,0 l/m 0 min 0,0 UV-I 0 W/m 0,0 km/h (0 Bft)
03.02.2013 03:26 2,8 C 1,2 C 93 % 0 lf 1018,1 hPa 0,0 l/m 0 min 0,0 UV-I 0 W/m 0,0 km/h (0 Bft)
03.02.2013 03:28 2,8 C 1,2 C 93 % 0 lf 1018,2 hPa 0,0 l/m 0 min 0,0 UV-I 0 W/m 2,6 km/h (1 Bft)
03.02.2013 03:30 2,8 C 1,2 C 93 % 0 lf 1018,2 hPa 0,0 l/m 0 min 0,0 UV-I 0 W/m 5,1 km/h (1 Bft)
03.02.2013 03:32 2,8 C 1,2 C 93 % 0 lf 1018,2 hPa 0,0 l/m 0 min 0,0 UV-I 0 W/m 5,1 km/h (1 Bft)
03.02.2013 03:34 2,8 C 1,2 C 93 % 0 lf 1018,2 hPa 0,0 l/m 0 min 0,0 UV-I 0 W/m 5,1 km/h (1 Bft)
03.02.2013 03:36 2,7 C 1,2 C 93 % 0 lf 1018,2 hPa 0,0 l/m 0 min 0,0 UV-I 0 W/m 0,0 km/h (0 Bft)
03.02.2013 03:38 2,7 C 1,2 C 94 % 0 lf 1018,2 hPa 0,0 l/m 0 min 0,0 UV-I 0 W/m 5,1 km/h (1 Bft)
03.02.2013 03:40 2,7 C 1,2 C 94 % 0 lf 1018,2 hPa 0,0 l/m 0 min 0,0 UV-I 0 W/m 7,7 km/h (2 Bft)
03.02.2013 03:42 2,7 C 1,2 C 94 % 0 lf 1018,0 hPa 0,0 l/m 0 min 0,0 UV-I 0 W/m 5,1 km/h (1 Bft)
03.02.2013 03:44 2,7 C 1,2 C 94 % 0 lf 1017,9 hPa 0,0 l/m 0 min 0,0 UV-I 0 W/m 5,1 km/h (1 Bft)
03.02.2013 03:46 2,7 C 1,8 C 94 % 0 lf 1018,0 hPa 0,0 l/m 0 min 0,0 UV-I 0 W/m 5,1 km/h (1 Bft)
03.02.2013 03:48 2,7 C 1,8 C 94 % 0 lf 1018,0 hPa 0,0 l/m 0 min 0,0 UV-I 0 W/m 7,7 km/h (2 Bft)
03.02.2013 03:50 2,7 C 1,8 C 94 % 0 lf 1018,0 hPa 0,0 l/m 0 min 0,0 UV-I 0 W/m 0,0 km/h (0 Bft)
03.02.2013 03:52 2,7 C 1,8 C 94 % 0 lf 1018,1 hPa 0,0 l/m 0 min 0,0 UV-I 0 W/m 2,6 km/h (1 Bft)
03.02.2013 03:54 2,7 C 1,8 C 94 % 0 lf 1018,1 hPa 0,0 l/m 0 min 0,0 UV-I 0 W/m 5,1 km/h (1 Bft)
03.02.2013 03:56 2,7 C 1,8 C 94 % 0 lf 1018,2 hPa 0,0 l/m 0 min 0,0 UV-I 0 W/m 2,6 km/h (1 Bft)
03.02.2013 03:58 2,7 C 1,8 C 94 % 0 lf 1018,1 hPa 0,0 l/m 0 min 0,0 UV-I 0 W/m 5,1 km/h (1 Bft)
03.02.2013 04:00 2,7 C 1,8 C 94 % 0 lf 1018,1 hPa 0,0 l/m 0 min 0,0 UV-I 0 W/m 0,0 km/h (0 Bft)
03.02.2013 04:02 2,7 C 1,8 C 94 % 0 lf 1018,2 hPa 0,0 l/m 0 min 0,0 UV-I 0 W/m 5,1 km/h (1 Bft)
03.02.2013 04:06 2,7 C 1,8 C 94 % 0 lf 1018,0 hPa 0,0 l/m 0 min 0,0 UV-I 0 W/m 2,6 km/h (1 Bft)
03.02.2013 04:08 2,7 C 1,8 C 94 % 0 lf 1018,0 hPa 0,0 l/m 0 min 0,0 UV-I 0 W/m 0,0 km/h (0 Bft)
03.02.2013 04:10 2,7 C 1,8 C 94 % 0 lf 1018,0 hPa 0,0 l/m 0 min 0,0 UV-I 0 W/m 0,0 km/h (0 Bft)
03.02.2013 04:12 2,8 C 1,8 C 94 % 0 lf 1018,1 hPa 0,0 l/m 0 min 0,0 UV-I 0 W/m 0,0 km/h (0 Bft)
03.02.2013 04:14 2,8 C 1,8 C 94 % 0 lf 1018,1 hPa 0,0 l/m 0 min 0,0 UV-I 0 W/m 0,0 km/h (0 Bft)
03.02.2013 04:16 2,8 C 1,8 C 94 % 0 lf 1018,2 hPa 0,0 l/m 0 min 0,0 UV-I 0 W/m 7,7 km/h (2 Bft)
03.02.2013 04:18 2,8 C 1,8 C 95 % 2 lf 1018,1 hPa 0,0 l/m 0 min 0,0 UV-I 0 W/m 7,7 km/h (2 Bft)
03.02.2013 04:20 2,8 C 1,8 C 95 % 5 lf 1018,2 hPa 0,0 l/m 0 min 0,0 UV-I 0 W/m 5,1 km/h (1 Bft)
03.02.2013 04:22 2,8 C 1,8 C 95 % 12 lf 1018,2 hPa 0,0 l/m 0 min 0,0 UV-I 0 W/m 5,1 km/h (1 Bft)
03.02.2013 04:24 2,8 C 1,8 C 95 % 13 lf 1018,3 hPa 0,0 l/m 0 min 0,0 UV-I 0 W/m 5,1 km/h (1 Bft)
03.02.2013 04:26 2,8 C 1,8 C 94 % 12 lf 1018,3 hPa 0,0 l/m 0 min 0,0 UV-I 0 W/m 10,3 km/h (2 Bft)
03.02.2013 04:28 2,8 C 1,8 C 95 % 10 lf 1018,3 hPa 0,0 l/m 0 min 0,0 UV-I 0 W/m 0,0 km/h (0 Bft)
03.02.2013 04:30 2,8 C 1,8 C 95 % 6 lf 1018,4 hPa 0,0 l/m 0 min 0,0 UV-I 0 W/m 10,3 km/h (2 Bft)
03.02.2013 04:32 2,8 C 1,8 C 95 % 3 lf 1018,4 hPa 0,0 l/m 0 min 0,0 UV-I 0 W/m 7,7 km/h (2 Bft)
03.02.2013 04:34 2,9 C 1,8 C 95 % 1 lf 1018,4 hPa 0,0 l/m 0 min 0,0 UV-I 0 W/m 5,1 km/h (1 Bft)
03.02.2013 04:36 2,9 C 1,8 C 95 % 1 lf 1018,4 hPa 0,0 l/m 0 min 0,0 UV-I 0 W/m 2,6 km/h (1 Bft)
03.02.2013 04:38 2,9 C 1,8 C 95 % 1 lf 1018,5 hPa 0,0 l/m 0 min 0,0 UV-I 0 W/m 2,6 km/h (1 Bft)
03.02.2013 04:40 2,9 C 1,8 C 95 % 0 lf 1018,5 hPa 0,0 l/m 0 min 0,0 UV-I 0 W/m 0,0 km/h (0 Bft)
03.02.2013 04:42 2,9 C 1,8 C 95 % 0 lf 1018,5 hPa 0,0 l/m 0 min 0,0 UV-I 0 W/m 2,6 km/h (1 Bft)
03.02.2013 04:44 2,9 C 1,8 C 95 % 0 lf 1018,6 hPa 0,0 l/m 0 min 0,0 UV-I 0 W/m 5,1 km/h (1 Bft)
03.02.2013 04:46 2,9 C 1,8 C 95 % 0 lf 1018,6 hPa 0,0 l/m 0 min 0,0 UV-I 0 W/m 0,0 km/h (0 Bft)
03.02.2013 04:48 2,9 C 1,8 C 95 % 0 lf 1018,6 hPa 0,0 l/m 0 min 0,0 UV-I 0 W/m 0,0 km/h (0 Bft)
03.02.2013 04:50 2,9 C 1,8 C 95 % 0 lf 1018,5 hPa 0,0 l/m 0 min 0,0 UV-I 0 W/m 12,9 km/h (3 Bft)
03.02.2013 04:52 2,9 C 1,8 C 95 % 0 lf 1018,6 hPa 0,0 l/m 0 min 0,0 UV-I 0 W/m 7,7 km/h (2 Bft)
03.02.2013 04:54 2,9 C 1,8 C 95 % 0 lf 1018,6 hPa 0,0 l/m 0 min 0,0 UV-I 0 W/m 7,7 km/h (2 Bft)
03.02.2013 04:56 2,9 C 1,8 C 95 % 1 lf 1018,6 hPa 0,0 l/m 0 min 0,0 UV-I 0 W/m 5,1 km/h (1 Bft)
03.02.2013 04:58 2,9 C 1,8 C 95 % 0 lf 1018,5 hPa 0,0 l/m 0 min 0,0 UV-I 0 W/m 5,1 km/h (1 Bft)
03.02.2013 05:00 2,9 C 1,8 C 95 % 0 lf 1018,5 hPa 0,0 l/m 0 min 0,0 UV-I 0 W/m 5,1 km/h (1 Bft)
03.02.2013 05:02 2,9 C 1,8 C 95 % 0 lf 1018,6 hPa 0,0 l/m 0 min 0,0 UV-I 0 W/m 7,7 km/h (2 Bft)
03.02.2013 05:04 2,9 C 1,8 C 95 % 0 lf 1018,5 hPa 0,0 l/m 0 min 0,0 UV-I 0 W/m 5,1 km/h (1 Bft)
03.02.2013 05:08 2,9 C 1,8 C 94 % 0 lf 1018,5 hPa 0,0 l/m 0 min 0,0 UV-I 0 W/m 5,1 km/h (1 Bft)
03.02.2013 05:10 2,9 C 1,8 C 94 % 0 lf 1018,5 hPa 0,0 l/m 0 min 0,0 UV-I 0 W/m 0,0 km/h (0 Bft)
03.02.2013 05:12 2,9 C 1,8 C 94 % 0 lf 1018,5 hPa 0,0 l/m 0 min 0,0 UV-I 0 W/m 0,0 km/h (0 Bft)
03.02.2013 05:14 2,9 C 1,8 C 94 % 0 lf 1018,5 hPa 0,0 l/m 0 min 0,0 UV-I 0 W/m 0,0 km/h (0 Bft)
03.02.2013 05:16 2,9 C 1,8 C 94 % 0 lf 1018,4 hPa 0,0 l/m 0 min 0,0 UV-I 0 W/m 2,6 km/h (1 Bft)
03.02.2013 05:18 2,9 C 1,8 C 94 % 0 lf 1018,5 hPa 0,0 l/m 0 min 0,0 UV-I 0 W/m 0,0 km/h (0 Bft)
03.02.2013 05:20 2,9 C 1,8 C 94 % 0 lf 1018,5 hPa 0,0 l/m 0 min 0,0 UV-I 0 W/m 0,0 km/h (0 Bft)
03.02.2013 05:22 2,9 C 1,8 C 94 % 0 lf 1018,5 hPa 0,0 l/m 0 min 0,0 UV-I 0 W/m 7,7 km/h (2 Bft)
03.02.2013 05:24 2,9 C 1,8 C 94 % 0 lf 1018,5 hPa 0,0 l/m 0 min 0,0 UV-I 0 W/m 0,0 km/h (0 Bft)
03.02.2013 05:26 2,9 C 1,8 C 94 % 0 lf 1018,5 hPa 0,0 l/m 0 min 0,0 UV-I 0 W/m 0,0 km/h (0 Bft)
03.02.2013 05:28 2,9 C 1,8 C 94 % 0 lf 1018,5 hPa 0,0 l/m 0 min 0,0 UV-I 0 W/m 2,6 km/h (1 Bft)
03.02.2013 05:30 2,9 C 1,8 C 94 % 0 lf 1018,4 hPa 0,0 l/m 0 min 0,0 UV-I 0 W/m 0,0 km/h (0 Bft)
03.02.2013 05:32 2,9 C 1,8 C 94 % 0 lf 1018,5 hPa 0,0 l/m 0 min 0,0 UV-I 0 W/m 0,0 km/h (0 Bft)
03.02.2013 05:34 2,8 C 1,8 C 94 % 0 lf 1018,5 hPa 0,0 l/m 0 min 0,0 UV-I 0 W/m 2,6 km/h (1 Bft)
03.02.2013 05:36 2,8 C 1,8 C 94 % 0 lf 1018,6 hPa 0,0 l/m 0 min 0,0 UV-I 0 W/m 0,0 km/h (0 Bft)
03.02.2013 05:38 2,8 C 1,8 C 94 % 0 lf 1018,6 hPa 0,0 l/m 0 min 0,0 UV-I 0 W/m 5,1 km/h (1 Bft)
03.02.2013 05:40 2,8 C 1,8 C 94 % 0 lf 1018,5 hPa 0,0 l/m 0 min 0,0 UV-I 0 W/m 0,0 km/h (0 Bft)
03.02.2013 05:42 2,8 C 1,8 C 94 % 0 lf 1018,6 hPa 0,0 l/m 0 min 0,0 UV-I 0 W/m 0,0 km/h (0 Bft)
03.02.2013 05:44 2,8 C 1,8 C 94 % 0 lf 1018,4 hPa 0,0 l/m 0 min 0,0 UV-I 0 W/m 10,3 km/h (2 Bft)
03.02.2013 05:46 2,8 C 1,8 C 94 % 0 lf 1018,5 hPa 0,0 l/m 0 min 0,0 UV-I 0 W/m 7,7 km/h (2 Bft)
03.02.2013 05:48 2,8 C 1,8 C 94 % 0 lf 1018,5 hPa 0,0 l/m 0 min 0,0 UV-I 0 W/m 0,0 km/h (0 Bft)
03.02.2013 05:50 2,8 C 1,8 C 94 % 0 lf 1018,5 hPa 0,0 l/m 0 min 0,0 UV-I 0 W/m 0,0 km/h (0 Bft)
03.02.2013 05:52 2,8 C 1,8 C 94 % 0 lf 1018,5 hPa 0,0 l/m 0 min 0,0 UV-I 0 W/m 0,0 km/h (0 Bft)
03.02.2013 05:54 2,8 C 1,8 C 94 % 0 lf 1018,5 hPa 0,0 l/m 0 min 0,0 UV-I 0 W/m 2,6 km/h (1 Bft)
03.02.2013 05:56 2,8 C 1,8 C 94 % 0 lf 1018,5 hPa 0,0 l/m 0 min 0,0 UV-I 0 W/m 0,0 km/h (0 Bft)
03.02.2013 05:58 2,8 C 1,8 C 94 % 0 lf 1018,5 hPa 0,0 l/m 0 min 0,0 UV-I 0 W/m 0,0 km/h (0 Bft)
03.02.2013 06:00 2,8 C 1,8 C 94 % 0 lf 1018,6 hPa 0,0 l/m 0 min 0,0 UV-I 0 W/m 2,6 km/h (1 Bft)
03.02.2013 06:02 2,8 C 1,8 C 94 % 0 lf 1018,7 hPa 0,0 l/m 0 min 0,0 UV-I 0 W/m 5,1 km/h (1 Bft)
03.02.2013 06:06 2,8 C 1,8 C 94 % 0 lf 1018,8 hPa 0,0 l/m 0 min 0,0 UV-I 0 W/m 5,1 km/h (1 Bft)
03.02.2013 06:08 2,8 C 1,8 C 94 % 0 lf 1018,8 hPa 0,0 l/m 0 min 0,0 UV-I 0 W/m 5,1 km/h (1 Bft)
03.02.2013 06:10 2,8 C 1,8 C 94 % 0 lf 1018,8 hPa 0,0 l/m 0 min 0,0 UV-I 0 W/m 5,1 km/h (1 Bft)
03.02.2013 06:12 2,8 C 1,8 C 94 % 0 lf 1018,7 hPa 0,0 l/m 0 min 0,0 UV-I 0 W/m 5,1 km/h (1 Bft)
03.02.2013 06:14 2,8 C 1,8 C 94 % 0 lf 1018,7 hPa 0,0 l/m 0 min 0,0 UV-I 0 W/m 10,3 km/h (2 Bft)
03.02.2013 06:16 2,8 C 1,8 C 94 % 0 lf 1018,8 hPa 0,0 l/m 0 min 0,0 UV-I 0 W/m 12,9 km/h (3 Bft)
03.02.2013 06:18 2,8 C 1,8 C 94 % 0 lf 1018,8 hPa 0,0 l/m 0 min 0,0 UV-I 0 W/m 10,3 km/h (2 Bft)
03.02.2013 06:20 2,8 C 1,8 C 94 % 0 lf 1018,8 hPa 0,0 l/m 0 min 0,0 UV-I 0 W/m 7,7 km/h (2 Bft)
03.02.2013 06:22 2,8 C 1,8 C 94 % 0 lf 1018,8 hPa 0,0 l/m 0 min 0,0 UV-I 0 W/m 10,3 km/h (2 Bft)
03.02.2013 06:24 2,8 C 1,8 C 94 % 0 lf 1018,8 hPa 0,0 l/m 0 min 0,0 UV-I 0 W/m 5,1 km/h (1 Bft)
03.02.2013 06:26 2,8 C 1,8 C 94 % 0 lf 1018,8 hPa 0,0 l/m 0 min 0,0 UV-I 0 W/m 7,7 km/h (2 Bft)
03.02.2013 06:28 2,8 C 1,8 C 94 % 0 lf 1018,9 hPa 0,0 l/m 0 min 0,0 UV-I 0 W/m 2,6 km/h (1 Bft)
03.02.2013 06:30 2,8 C 1,8 C 94 % 0 lf 1018,8 hPa 0,0 l/m 0 min 0,0 UV-I 0 W/m 10,3 km/h (2 Bft)
03.02.2013 06:32 2,9 C 1,8 C 94 % 0 lf 1018,8 hPa 0,0 l/m 0 min 0,0 UV-I 0 W/m 2,6 km/h (1 Bft)
03.02.2013 06:34 2,8 C 1,8 C 94 % 0 lf 1018,8 hPa 0,0 l/m 0 min 0,0 UV-I 0 W/m 7,7 km/h (2 Bft)
03.02.2013 06:36 2,8 C 1,8 C 94 % 0 lf 1018,8 hPa 0,0 l/m 0 min 0,0 UV-I 0 W/m 0,0 km/h (0 Bft)
03.02.2013 06:38 2,8 C 1,8 C 94 % 0 lf 1018,8 hPa 0,0 l/m 0 min 0,0 UV-I 0 W/m 7,7 km/h (2 Bft)
03.02.2013 06:40 2,8 C 1,8 C 94 % 0 lf 1018,8 hPa 0,0 l/m 0 min 0,0 UV-I 0 W/m 10,3 km/h (2 Bft)
03.02.2013 06:42 2,8 C 1,8 C 94 % 0 lf 1018,8 hPa 0,0 l/m 0 min 0,0 UV-I 0 W/m 2,6 km/h (1 Bft)
03.02.2013 06:44 2,8 C 1,8 C 94 % 0 lf 1018,8 hPa 0,0 l/m 0 min 0,0 UV-I 0 W/m 0,0 km/h (0 Bft)
03.02.2013 06:46 2,8 C 1,8 C 94 % 0 lf 1018,8 hPa 0,0 l/m 0 min 0,0 UV-I 0 W/m 10,3 km/h (2 Bft)
03.02.2013 06:48 2,8 C 1,8 C 94 % 0 lf 1018,8 hPa 0,0 l/m 0 min 0,0 UV-I 0 W/m 10,3 km/h (2 Bft)
03.02.2013 06:50 2,8 C 1,8 C 94 % 0 lf 1018,8 hPa 0,0 l/m 0 min 0,0 UV-I 0 W/m 12,9 km/h (3 Bft)
03.02.2013 06:52 2,8 C 1,8 C 94 % 0 lf 1018,8 hPa 0,0 l/m 0 min 0,0 UV-I 0 W/m 5,1 km/h (1 Bft)
03.02.2013 06:54 2,8 C 1,8 C 94 % 0 lf 1018,8 hPa 0,0 l/m 0 min 0,0 UV-I 0 W/m 7,7 km/h (2 Bft)
03.02.2013 06:56 2,7 C 1,2 C 94 % 0 lf 1018,8 hPa 0,0 l/m 0 min 0,0 UV-I 0 W/m 5,1 km/h (1 Bft)
03.02.2013 06:58 2,7 C 1,2 C 94 % 0 lf 1018,5 hPa 0,0 l/m 0 min 0,0 UV-I 0 W/m 0,0 km/h (0 Bft)
03.02.2013 07:00 2,7 C 1,2 C 94 % 0 lf 1018,5 hPa 0,0 l/m 0 min 0,0 UV-I 0 W/m 2,6 km/h (1 Bft)
03.02.2013 07:02 2,7 C 1,2 C 94 % 0 lf 1018,4 hPa 0,0 l/m 0 min 0,0 UV-I 0 W/m 5,1 km/h (1 Bft)
03.02.2013 07:06 2,7 C 1,2 C 94 % 0 lf 1018,3 hPa 0,0 l/m 0 min 0,0 UV-I 0 W/m 0,0 km/h (0 Bft)
03.02.2013 07:08 2,7 C 1,2 C 94 % 0 lf 1018,3 hPa 0,0 l/m 0 min 0,0 UV-I 0 W/m 5,1 km/h (1 Bft)
03.02.2013 07:10 2,6 C 1,2 C 94 % 0 lf 1018,3 hPa 0,0 l/m 0 min 0,0 UV-I 0 W/m 7,7 km/h (2 Bft)
03.02.2013 07:12 2,6 C 1,2 C 94 % 0 lf 1018,4 hPa 0,0 l/m 0 min 0,0 UV-I 0 W/m 7,7 km/h (2 Bft)
03.02.2013 07:14 2,6 C 1,2 C 94 % 0 lf 1018,3 hPa 0,0 l/m 0 min 0,0 UV-I 0 W/m 2,6 km/h (1 Bft)
03.02.2013 07:16 2,6 C 1,2 C 94 % 0 lf 1018,5 hPa 0,0 l/m 0 min 0,0 UV-I 0 W/m 7,7 km/h (2 Bft)
03.02.2013 07:18 2,6 C 1,2 C 94 % 0 lf 1018,4 hPa 0,0 l/m 0 min 0,0 UV-I 0 W/m 2,6 km/h (1 Bft)
03.02.2013 07:20 2,6 C 1,2 C 94 % 0 lf 1018,4 hPa 0,0 l/m 0 min 0,0 UV-I 0 W/m 0,0 km/h (0 Bft)
03.02.2013 07:22 2,5 C 1,2 C 94 % 0 lf 1018,3 hPa 0,0 l/m 0 min 0,0 UV-I 0 W/m 0,0 km/h (0 Bft)
03.02.2013 07:24 2,5 C 1,2 C 94 % 0 lf 1018,2 hPa 0,0 l/m 0 min 0,0 UV-I 0 W/m 0,0 km/h (0 Bft)
03.02.2013 07:26 2,4 C 1,2 C 94 % 0 lf 1018,2 hPa 0,0 l/m 0 min 0,0 UV-I 0 W/m 2,6 km/h (1 Bft)
03.02.2013 07:28 2,4 C 1,2 C 94 % 0 lf 1018,2 hPa 0,0 l/m 0 min 0,0 UV-I 0 W/m 7,7 km/h (2 Bft)
03.02.2013 07:30 2,4 C 1,2 C 94 % 0 lf 1018,2 hPa 0,0 l/m 0 min 0,0 UV-I 0 W/m 5,1 km/h (1 Bft)
03.02.2013 07:32 2,4 C 1,2 C 94 % 0 lf 1018,3 hPa 0,0 l/m 0 min 0,0 UV-I 0 W/m 0,0 km/h (0 Bft)
03.02.2013 07:34 2,4 C 1,2 C 94 % 0 lf 1018,3 hPa 0,0 l/m 0 min 0,0 UV-I 0 W/m 5,1 km/h (1 Bft)
03.02.2013 07:36 2,3 C 1,2 C 94 % 0 lf 1018,3 hPa 0,0 l/m 0 min 0,0 UV-I 0 W/m 12,9 km/h (3 Bft)
03.02.2013 07:38 2,3 C 1,2 C 94 % 0 lf 1018,2 hPa 0,0 l/m 0 min 0,0 UV-I 0 W/m 10,3 km/h (2 Bft)
03.02.2013 07:40 2,3 C 1,2 C 94 % 0 lf 1018,2 hPa 0,0 l/m 0 min 0,0 UV-I 0 W/m 0,0 km/h (0 Bft)
03.02.2013 07:42 2,3 C 1,2 C 94 % 0 lf 1018,2 hPa 0,0 l/m 0 min 0,0 UV-I 0 W/m 7,7 km/h (2 Bft)
03.02.2013 07:44 2,3 C 1,2 C 94 % 0 lf 1018,2 hPa 0,0 l/m 0 min 0,0 UV-I 0 W/m 7,7 km/h (2 Bft)
03.02.2013 07:46 2,3 C 1,2 C 94 % 0 lf 1018,2 hPa 0,0 l/m 0 min 0,0 UV-I 0 W/m 2,6 km/h (1 Bft)
03.02.2013 07:48 2,3 C 1,2 C 94 % 0 lf 1018,2 hPa 0,0 l/m 0 min 0,0 UV-I 0 W/m 7,7 km/h (2 Bft)
03.02.2013 07:50 2,3 C 1,2 C 95 % 0 lf 1018,2 hPa 0,0 l/m 0 min 0,0 UV-I 0 W/m 0,0 km/h (0 Bft)
03.02.2013 07:52 2,2 C 1,2 C 94 % 0 lf 1018,3 hPa 0,0 l/m 0 min 0,0 UV-I 0 W/m 5,1 km/h (1 Bft)
03.02.2013 07:54 2,2 C 1,2 C 94 % 0 lf 1018,3 hPa 0,0 l/m 0 min 0,0 UV-I 0 W/m 0,0 km/h (0 Bft)
03.02.2013 07:56 2,2 C 1,2 C 95 % 0 lf 1018,3 hPa 0,0 l/m 0 min 0,0 UV-I 0 W/m 10,3 km/h (2 Bft)
03.02.2013 07:58 2,2 C 1,2 C 95 % 0 lf 1018,2 hPa 0,0 l/m 0 min 0,0 UV-I 5 W/m 0,0 km/h (0 Bft)
03.02.2013 08:00 2,2 C 1,2 C 95 % 0 lf 1018,3 hPa 0,0 l/m 0 min 0,0 UV-I 7 W/m 7,7 km/h (2 Bft)
03.02.2013 08:02 2,2 C 1,2 C 95 % 0 lf 1018,3 hPa 0,0 l/m 0 min 0,0 UV-I 7 W/m 0,0 km/h (0 Bft)
03.02.2013 08:06 2,2 C 1,2 C 95 % 0 lf 1018,4 hPa 0,0 l/m 0 min 0,0 UV-I 7 W/m 7,7 km/h (2 Bft)
03.02.2013 08:08 2,2 C 1,2 C 95 % 0 lf 1018,4 hPa 0,0 l/m 0 min 0,0 UV-I 7 W/m 0,0 km/h (0 Bft)
03.02.2013 08:10 2,2 C 1,2 C 95 % 0 lf 1018,4 hPa 0,0 l/m 0 min 0,0 UV-I 7 W/m 5,1 km/h (1 Bft)
03.02.2013 08:12 2,2 C 1,2 C 95 % 0 lf 1018,4 hPa 0,0 l/m 0 min 0,0 UV-I 5 W/m 0,0 km/h (0 Bft)
03.02.2013 08:14 2,2 C 1,2 C 95 % 0 lf 1018,4 hPa 0,0 l/m 0 min 0,0 UV-I 5 W/m 5,1 km/h (1 Bft)
03.02.2013 08:16 2,2 C 1,2 C 95 % 0 lf 1018,3 hPa 0,0 l/m 0 min 0,0 UV-I 5 W/m 0,0 km/h (0 Bft)
03.02.2013 08:18 2,1 C 1,2 C 95 % 0 lf 1018,3 hPa 0,0 l/m 0 min 0,0 UV-I 5 W/m 0,0 km/h (0 Bft)
03.02.2013 08:20 2,1 C 1,2 C 95 % 0 lf 1018,4 hPa 0,0 l/m 0 min 0,0 UV-I 5 W/m 7,7 km/h (2 Bft)
03.02.2013 08:22 2,1 C 1,2 C 95 % 0 lf 1018,4 hPa 0,0 l/m 0 min 0,0 UV-I 5 W/m 5,1 km/h (1 Bft)
03.02.2013 08:24 2,1 C 1,2 C 95 % 0 lf 1018,4 hPa 0,0 l/m 0 min 0,0 UV-I 7 W/m 7,7 km/h (2 Bft)
03.02.2013 08:26 2,1 C 1,2 C 95 % 0 lf 1018,3 hPa 0,0 l/m 0 min 0,0 UV-I 7 W/m 0,0 km/h (0 Bft)
03.02.2013 08:28 2,1 C 1,2 C 95 % 0 lf 1018,2 hPa 0,0 l/m 0 min 0,0 UV-I 9 W/m 2,6 km/h (1 Bft)
03.02.2013 08:30 2,2 C 1,2 C 95 % 0 lf 1018,2 hPa 0,0 l/m 0 min 0,0 UV-I 9 W/m 5,1 km/h (1 Bft)
03.02.2013 08:32 2,2 C 1,2 C 95 % 0 lf 1018,2 hPa 0,0 l/m 0 min 0,0 UV-I 9 W/m 5,1 km/h (1 Bft)
03.02.2013 08:34 2,2 C 1,2 C 95 % 0 lf 1018,2 hPa 0,0 l/m 0 min 0,0 UV-I 11 W/m 2,6 km/h (1 Bft)
03.02.2013 08:36 2,1 C 1,2 C 95 % 0 lf 1018,3 hPa 0,0 l/m 0 min 0,0 UV-I 11 W/m 5,1 km/h (1 Bft)
03.02.2013 08:38 2,1 C 1,2 C 95 % 0 lf 1018,5 hPa 0,0 l/m 0 min 0,0 UV-I 12 W/m 7,7 km/h (2 Bft)
03.02.2013 08:40 2,1 C 1,2 C 95 % 0 lf 1018,5 hPa 0,0 l/m 0 min 0,0 UV-I 12 W/m 5,1 km/h (1 Bft)
03.02.2013 08:42 2,2 C 1,2 C 95 % 0 lf 1018,6 hPa 0,0 l/m 0 min 0,0 UV-I 12 W/m 2,6 km/h (1 Bft)
03.02.2013 08:44 2,1 C 1,2 C 95 % 0 lf 1018,7 hPa 0,0 l/m 0 min 0,0 UV-I 14 W/m 2,6 km/h (1 Bft)
03.02.2013 08:46 2,1 C 1,2 C 95 % 0 lf 1018,7 hPa 0,0 l/m 0 min 0,0 UV-I 14 W/m 0,0 km/h (0 Bft)
03.02.2013 08:48 2,2 C 1,2 C 95 % 0 lf 1018,7 hPa 0,0 l/m 0 min 0,0 UV-I 16 W/m 10,3 km/h (2 Bft)
03.02.2013 08:50 2,2 C 1,2 C 95 % 0 lf 1018,7 hPa 0,0 l/m 0 min 0,0 UV-I 16 W/m 0,0 km/h (0 Bft)
03.02.2013 08:52 2,2 C 1,2 C 95 % 0 lf 1018,7 hPa 0,0 l/m 0 min 0,0 UV-I 18 W/m 7,7 km/h (2 Bft)
03.02.2013 08:54 2,2 C 1,2 C 95 % 0 lf 1018,7 hPa 0,0 l/m 0 min 0,0 UV-I 19 W/m 2,6 km/h (1 Bft)
03.02.2013 08:56 2,2 C 1,2 C 95 % 0 lf 1018,8 hPa 0,0 l/m 0 min 0,0 UV-I 19 W/m 5,1 km/h (1 Bft)
03.02.2013 08:58 2,2 C 1,2 C 95 % 0 lf 1018,7 hPa 0,0 l/m 0 min 0,0 UV-I 21 W/m 7,7 km/h (2 Bft)
03.02.2013 09:00 2,2 C 1,2 C 95 % 0 lf 1018,7 hPa 0,0 l/m 0 min 0,0 UV-I 21 W/m 10,3 km/h (2 Bft)
03.02.2013 09:02 2,2 C 1,2 C 96 % 0 lf 1018,7 hPa 0,0 l/m 0 min 0,0 UV-I 21 W/m 12,9 km/h (3 Bft)
03.02.2013 09:06 2,3 C 1,2 C 96 % 0 lf 1018,7 hPa 0,0 l/m 0 min 0,0 UV-I 21 W/m 10,3 km/h (2 Bft)
03.02.2013 09:08 2,3 C 1,8 C 96 % 0 lf 1018,7 hPa 0,0 l/m 0 min 0,0 UV-I 23 W/m 12,9 km/h (3 Bft)
03.02.2013 09:10 2,3 C 1,8 C 96 % 0 lf 1018,7 hPa 0,0 l/m 0 min 0,0 UV-I 25 W/m 10,3 km/h (2 Bft)
03.02.2013 09:12 2,3 C 1,8 C 96 % 0 lf 1018,7 hPa 0,0 l/m 0 min 0,0 UV-I 26 W/m 15,4 km/h (3 Bft)
03.02.2013 09:14 2,3 C 1,8 C 96 % 0 lf 1018,7 hPa 0,0 l/m 0 min 0,0 UV-I 28 W/m 10,3 km/h (2 Bft)
03.02.2013 09:16 2,3 C 1,8 C 96 % 0 lf 1018,8 hPa 0,0 l/m 0 min 0,0 UV-I 30 W/m 2,6 km/h (1 Bft)
03.02.2013 09:18 2,3 C 1,8 C 96 % 0 lf 1018,8 hPa 0,0 l/m 0 min 0,0 UV-I 30 W/m 0,0 km/h (0 Bft)
03.02.2013 09:20 2,3 C 1,8 C 96 % 0 lf 1018,8 hPa 0,0 l/m 0 min 0,0 UV-I 30 W/m 7,7 km/h (2 Bft)
03.02.2013 09:22 2,4 C 1,8 C 96 % 0 lf 1018,7 hPa 0,0 l/m 0 min 0,0 UV-I 26 W/m 2,6 km/h (1 Bft)
03.02.2013 09:24 2,4 C 1,8 C 96 % 0 lf 1018,7 hPa 0,0 l/m 0 min 0,0 UV-I 26 W/m 7,7 km/h (2 Bft)
03.02.2013 09:26 2,4 C 1,8 C 96 % 0 lf 1018,7 hPa 0,0 l/m 0 min 0,0 UV-I 26 W/m 5,1 km/h (1 Bft)
03.02.2013 09:28 2,4 C 1,8 C 96 % 0 lf 1018,8 hPa 0,0 l/m 0 min 0,0 UV-I 28 W/m 7,7 km/h (2 Bft)
03.02.2013 09:30 2,4 C 1,8 C 96 % 0 lf 1018,7 hPa 0,0 l/m 0 min 0,0 UV-I 33 W/m 5,1 km/h (1 Bft)
03.02.2013 09:32 2,4 C 1,8 C 96 % 0 lf 1018,7 hPa 0,0 l/m 0 min 0,0 UV-I 37 W/m 7,7 km/h (2 Bft)
03.02.2013 09:34 2,4 C 1,8 C 96 % 0 lf 1018,6 hPa 0,0 l/m 0 min 0,0 UV-I 40 W/m 0,0 km/h (0 Bft)
03.02.2013 09:36 2,5 C 1,8 C 96 % 0 lf 1018,7 hPa 0,0 l/m 0 min 0,0 UV-I 42 W/m 7,7 km/h (2 Bft)
03.02.2013 09:38 2,5 C 1,8 C 95 % 0 lf 1018,6 hPa 0,0 l/m 0 min 0,0 UV-I 47 W/m 2,6 km/h (1 Bft)
03.02.2013 09:40 2,5 C 1,8 C 95 % 0 lf 1018,5 hPa 0,0 l/m 0 min 0,0 UV-I 49 W/m 15,4 km/h (3 Bft)
03.02.2013 09:42 2,5 C 1,8 C 95 % 0 lf 1018,5 hPa 0,0 l/m 0 min 0,0 UV-I 51 W/m 12,9 km/h (3 Bft)
03.02.2013 09:44 2,6 C 1,8 C 95 % 0 lf 1018,4 hPa 0,0 l/m 0 min 0,0 UV-I 60 W/m 10,3 km/h (2 Bft)
03.02.2013 09:46 2,6 C 1,8 C 95 % 0 lf 1018,4 hPa 0,0 l/m 0 min 0,0 UV-I 67 W/m 7,7 km/h (2 Bft)
03.02.2013 09:48 2,6 C 1,8 C 95 % 0 lf 1018,3 hPa 0,0 l/m 0 min 0,0 UV-I 74 W/m 10,3 km/h (2 Bft)
03.02.2013 09:50 2,6 C 2,3 C 95 % 0 lf 1018,4 hPa 0,0 l/m 0 min 0,0 UV-I 76 W/m 7,7 km/h (2 Bft)
03.02.2013 09:52 2,6 C 2,3 C 95 % 0 lf 1018,4 hPa 0,0 l/m 0 min 0,0 UV-I 76 W/m 7,7 km/h (2 Bft)
03.02.2013 09:54 2,7 C 2,3 C 96 % 0 lf 1018,4 hPa 0,0 l/m 0 min 0,0 UV-I 70 W/m 0,0 km/h (0 Bft)
03.02.2013 09:56 2,7 C 2,3 C 96 % 0 lf 1018,3 hPa 0,0 l/m 0 min 0,0 UV-I 53 W/m 10,3 km/h (2 Bft)
03.02.2013 09:58 2,7 C 2,3 C 96 % 0 lf 1018,2 hPa 0,0 l/m 0 min 0,0 UV-I 44 W/m 10,3 km/h (2 Bft)
03.02.2013 10:00 2,7 C 2,3 C 96 % 0 lf 1018,2 hPa 0,0 l/m 0 min 0,0 UV-I 39 W/m 7,7 km/h (2 Bft)
03.02.2013 10:02 2,8 C 2,3 C 96 % 0 lf 1018,3 hPa 0,0 l/m 0 min 0,0 UV-I 30 W/m 12,9 km/h (3 Bft)
03.02.2013 10:06 2,8 C 2,3 C 95 % 0 lf 1018,2 hPa 0,0 l/m 0 min 0,0 UV-I 19 W/m 10,3 km/h (2 Bft)
03.02.2013 10:08 2,8 C 2,3 C 95 % 0 lf 1018,3 hPa 0,0 l/m 0 min 0,0 UV-I 16 W/m 10,3 km/h (2 Bft)
03.02.2013 10:10 2,8 C 1,8 C 95 % 0 lf 1018,4 hPa 0,0 l/m 0 min 0,0 UV-I 14 W/m 10,3 km/h (2 Bft)
03.02.2013 10:12 2,8 C 1,8 C 95 % 0 lf 1018,4 hPa 0,0 l/m 0 min 0,0 UV-I 14 W/m 7,7 km/h (2 Bft)
03.02.2013 10:14 2,8 C 1,8 C 95 % 0 lf 1018,3 hPa 0,0 l/m 0 min 0,0 UV-I 39 W/m 5,1 km/h (1 Bft)
03.02.2013 10:16 2,8 C 2,3 C 95 % 0 lf 1018,4 hPa 0,0 l/m 0 min 0,0 UV-I 47 W/m 10,3 km/h (2 Bft)
03.02.2013 10:18 2,8 C 2,3 C 95 % 0 lf 1018,5 hPa 0,0 l/m 0 min 0,0 UV-I 54 W/m 2,6 km/h (1 Bft)
03.02.2013 10:20 2,8 C 2,3 C 95 % 0 lf 1018,5 hPa 0,0 l/m 0 min 0,0 UV-I 56 W/m 12,9 km/h (3 Bft)
03.02.2013 10:22 2,9 C 2,3 C 95 % 0 lf 1018,4 hPa 0,0 l/m 0 min 0,0 UV-I 62 W/m 10,3 km/h (2 Bft)
03.02.2013 10:24 2,9 C 2,3 C 95 % 0 lf 1018,4 hPa 0,0 l/m 0 min 0,0 UV-I 60 W/m 10,3 km/h (2 Bft)
03.02.2013 10:26 2,9 C 2,3 C 95 % 2 lf 1018,4 hPa 0,0 l/m 0 min 0,0 UV-I 53 W/m 12,9 km/h (3 Bft)
03.02.2013 10:28 2,9 C 2,3 C 95 % 0 lf 1018,3 hPa 0,0 l/m 0 min 0,0 UV-I 51 W/m 12,9 km/h (3 Bft)
03.02.2013 10:30 3,0 C 2,3 C 95 % 10 lf 1018,4 hPa 0,0 l/m 0 min 0,0 UV-I 54 W/m 7,7 km/h (2 Bft)
03.02.2013 10:32 3,0 C 2,3 C 95 % 15 lf 1018,4 hPa 0,0 l/m 0 min 0,0 UV-I 72 W/m 5,1 km/h (1 Bft)
03.02.2013 10:34 3,1 C 2,3 C 95 % 15 lf 1018,4 hPa 0,0 l/m 0 min 0,0 UV-I 76 W/m 15,4 km/h (3 Bft)
03.02.2013 10:36 3,1 C 2,3 C 95 % 14 lf 1018,4 hPa 0,0 l/m 0 min 0,0 UV-I 84 W/m 15,4 km/h (3 Bft)
03.02.2013 10:38 3,1 C 2,3 C 95 % 10 lf 1018,2 hPa 0,0 l/m 0 min 0,0 UV-I 72 W/m 7,7 km/h (2 Bft)
03.02.2013 10:40 3,1 C 2,3 C 95 % 10 lf 1018,2 hPa 0,0 l/m 0 min 0,0 UV-I 77 W/m 10,3 km/h (2 Bft)
03.02.2013 10:42 3,2 C 2,3 C 95 % 6 lf 1018,3 hPa 0,0 l/m 0 min 0,0 UV-I 95 W/m 10,3 km/h (2 Bft)
03.02.2013 10:44 3,2 C 2,9 C 95 % 1 lf 1018,3 hPa 0,0 l/m 0 min 0,0 UV-I 93 W/m 15,4 km/h (3 Bft)
03.02.2013 10:46 3,2 C 2,9 C 95 % 0 lf 1018,3 hPa 0,0 l/m 0 min 0,0 UV-I 91 W/m 5,1 km/h (1 Bft)
03.02.2013 10:48 3,3 C 2,9 C 95 % 0 lf 1018,4 hPa 0,0 l/m 0 min 0,0 UV-I 79 W/m 10,3 km/h (2 Bft)
03.02.2013 10:50 3,3 C 2,9 C 95 % 0 lf 1018,4 hPa 0,0 l/m 0 min 0,0 UV-I 63 W/m 10,3 km/h (2 Bft)
03.02.2013 10:52 3,3 C 2,9 C 96 % 2 lf 1018,3 hPa 0,0 l/m 0 min 0,0 UV-I 42 W/m 10,3 km/h (2 Bft)
03.02.2013 10:54 3,3 C 2,3 C 96 % 15 lf 1018,3 hPa 0,0 l/m 0 min 0,0 UV-I 37 W/m 10,3 km/h (2 Bft)
03.02.2013 10:56 3,3 C 2,3 C 95 % 15 lf 1018,2 hPa 0,0 l/m 0 min 0,0 UV-I 42 W/m 12,9 km/h (3 Bft)
03.02.2013 10:58 3,3 C 2,3 C 95 % 15 lf 1018,3 hPa 0,2 l/m 0 min 0,0 UV-I 70 W/m 15,4 km/h (3 Bft)
03.02.2013 11:00 3,3 C 2,3 C 95 % 15 lf 1018,3 hPa 0,0 l/m 0 min 0,0 UV-I 139 W/m 10,3 km/h (2 Bft)
03.02.2013 11:02 3,4 C 2,3 C 95 % 15 lf 1018,3 hPa 0,0 l/m 0 min 0,0 UV-I 88 W/m 15,4 km/h (3 Bft)
03.02.2013 11:04 3,4 C 2,3 C 96 % 15 lf 1018,1 hPa 0,0 l/m 0 min 0,0 UV-I 62 W/m 7,7 km/h (2 Bft)
03.02.2013 11:07 3,4 C 2,3 C 96 % 15 lf 1018,0 hPa 0,0 l/m 0 min 0,0 UV-I 74 W/m 10,3 km/h (2 Bft)
03.02.2013 11:08 3,4 C 2,3 C 96 % 15 lf 1018,0 hPa 0,0 l/m 0 min 0,0 UV-I 81 W/m 0,0 km/h (0 Bft)
03.02.2013 11:10 3,4 C 2,3 C 96 % 15 lf 1018,0 hPa 0,0 l/m 0 min 0,0 UV-I 67 W/m 12,9 km/h (3 Bft)
03.02.2013 11:12 3,4 C 2,3 C 96 % 15 lf 1017,6 hPa 0,0 l/m 0 min 0,0 UV-I 86 W/m 15,4 km/h (3 Bft)
03.02.2013 11:14 3,5 C 2,3 C 96 % 15 lf 1017,6 hPa 0,0 l/m 0 min 0,0 UV-I 70 W/m 12,9 km/h (3 Bft)
03.02.2013 11:16 3,5 C 2,3 C 95 % 15 lf 1017,6 hPa 0,0 l/m 0 min 0,0 UV-I 76 W/m 10,3 km/h (2 Bft)
03.02.2013 11:18 3,6 C 2,9 C 95 % 15 lf 1017,5 hPa 0,0 l/m 0 min 0,0 UV-I 116 W/m 18,0 km/h (3 Bft)
03.02.2013 11:20 3,6 C 2,9 C 95 % 15 lf 1017,5 hPa 0,0 l/m 0 min 0,0 UV-I 125 W/m 18,0 km/h (3 Bft)
03.02.2013 11:22 3,6 C 2,9 C 95 % 15 lf 1017,5 hPa 0,0 l/m 0 min 0,0 UV-I 93 W/m 15,4 km/h (3 Bft)
03.02.2013 11:24 3,6 C 2,3 C 96 % 15 lf 1017,5 hPa 0,0 l/m 0 min 0,0 UV-I 58 W/m 15,4 km/h (3 Bft)
03.02.2013 11:26 3,7 C 2,3 C 95 % 15 lf 1017,4 hPa 0,0 l/m 0 min 0,0 UV-I 109 W/m 15,4 km/h (3 Bft)
03.02.2013 11:28 3,7 C 2,9 C 95 % 15 lf 1017,4 hPa 0,0 l/m 0 min 0,0 UV-I 158 W/m 18,0 km/h (3 Bft)
03.02.2013 11:30 3,7 C 2,9 C 95 % 15 lf 1017,4 hPa 0,0 l/m 2 min 0,0 UV-I 200 W/m 12,9 km/h (3 Bft)
03.02.2013 11:32 3,8 C 2,9 C 95 % 15 lf 1017,4 hPa 0,0 l/m 0 min 0,0 UV-I 134 W/m 15,4 km/h (3 Bft)
03.02.2013 11:34 3,8 C 2,9 C 95 % 15 lf 1017,4 hPa 0,0 l/m 0 min 0,0 UV-I 116 W/m 10,3 km/h (2 Bft)
03.02.2013 11:36 3,8 C 2,9 C 95 % 15 lf 1017,5 hPa 0,0 l/m 0 min 0,0 UV-I 98 W/m 15,4 km/h (3 Bft)
03.02.2013 11:38 3,8 C 2,9 C 95 % 15 lf 1017,5 hPa 0,0 l/m 0 min 0,0 UV-I 134 W/m 15,4 km/h (3 Bft)
03.02.2013 11:40 3,9 C 2,9 C 95 % 13 lf 1017,5 hPa 0,0 l/m 0 min 0,0 UV-I 128 W/m 20,6 km/h (4 Bft)
03.02.2013 11:42 3,9 C 3,4 C 95 % 2 lf 1017,6 hPa 0,0 l/m 0 min 0,0 UV-I 98 W/m 10,3 km/h (2 Bft)
03.02.2013 11:44 3,9 C 2,9 C 95 % 0 lf 1017,6 hPa 0,0 l/m 0 min 0,0 UV-I 51 W/m 18,0 km/h (3 Bft)
03.02.2013 11:46 3,9 C 2,9 C 94 % 0 lf 1017,8 hPa 0,0 l/m 0 min 0,0 UV-I 44 W/m 18,0 km/h (3 Bft)
03.02.2013 11:48 3,9 C 2,9 C 94 % 0 lf 1017,9 hPa 0,0 l/m 0 min 0,0 UV-I 44 W/m 18,0 km/h (3 Bft)
03.02.2013 11:50 3,9 C 2,9 C 94 % 0 lf 1017,9 hPa 0,0 l/m 0 min 0,0 UV-I 56 W/m 10,3 km/h (2 Bft)
03.02.2013 11:52 3,9 C 2,9 C 94 % 0 lf 1017,9 hPa 0,0 l/m 0 min 0,0 UV-I 60 W/m 10,3 km/h (2 Bft)
03.02.2013 11:54 3,9 C 2,9 C 94 % 0 lf 1017,9 hPa 0,0 l/m 0 min 0,0 UV-I 67 W/m 7,7 km/h (2 Bft)
03.02.2013 11:56 3,9 C 3,4 C 94 % 0 lf 1017,9 hPa 0,0 l/m 0 min 0,0 UV-I 97 W/m 12,9 km/h (3 Bft)
03.02.2013 11:58 3,9 C 3,4 C 94 % 0 lf 1018,0 hPa 0,0 l/m 0 min 0,0 UV-I 109 W/m 10,3 km/h (2 Bft)
03.02.2013 12:00 4,0 C 3,4 C 94 % 0 lf 1018,0 hPa 0,0 l/m 0 min 0,0 UV-I 179 W/m 18,0 km/h (3 Bft)
03.02.2013 12:02 4,0 C 4,0 C 94 % 0 lf 1017,9 hPa 0,0 l/m 2 min 0,0 UV-I 221 W/m 12,9 km/h (3 Bft)
03.02.2013 12:06 4,2 C 4,0 C 94 % 0 lf 1017,8 hPa 0,0 l/m 0 min 0,0 UV-I 123 W/m 10,3 km/h (2 Bft)
03.02.2013 12:08 4,2 C 4,0 C 94 % 0 lf 1017,8 hPa 0,0 l/m 0 min 0,0 UV-I 121 W/m 10,3 km/h (2 Bft)
03.02.2013 12:10 4,3 C 4,0 C 93 % 0 lf 1017,7 hPa 0,0 l/m 0 min 0,0 UV-I 102 W/m 12,9 km/h (3 Bft)
03.02.2013 12:12 4,3 C 4,0 C 93 % 0 lf 1017,8 hPa 0,0 l/m 0 min 0,0 UV-I 113 W/m 15,4 km/h (3 Bft)
03.02.2013 12:14 4,3 C 4,0 C 92 % 0 lf 1017,9 hPa 0,0 l/m 0 min 0,0 UV-I 114 W/m 20,6 km/h (4 Bft)
03.02.2013 12:16 4,3 C 4,0 C 92 % 0 lf 1017,8 hPa 0,0 l/m 0 min 0,0 UV-I 130 W/m 10,3 km/h (2 Bft)
03.02.2013 12:18 4,3 C 4,0 C 91 % 0 lf 1017,9 hPa 0,0 l/m 0 min 0,0 UV-I 118 W/m 12,9 km/h (3 Bft)
03.02.2013 12:20 4,3 C 4,0 C 91 % 0 lf 1017,8 hPa 0,0 l/m 0 min 0,0 UV-I 100 W/m 20,6 km/h (4 Bft)
03.02.2013 12:22 4,3 C 4,0 C 90 % 0 lf 1017,8 hPa 0,0 l/m 0 min 0,0 UV-I 74 W/m 15,4 km/h (3 Bft)
03.02.2013 12:24 4,3 C 3,4 C 90 % 0 lf 1017,7 hPa 0,0 l/m 0 min 0,0 UV-I 102 W/m 20,6 km/h (4 Bft)
03.02.2013 12:26 4,3 C 3,4 C 89 % 0 lf 1017,6 hPa 0,0 l/m 0 min 0,0 UV-I 76 W/m 20,6 km/h (4 Bft)
03.02.2013 12:28 4,3 C 3,4 C 88 % 0 lf 1017,6 hPa 0,0 l/m 0 min 0,0 UV-I 47 W/m 18,0 km/h (3 Bft)
03.02.2013 12:30 4,3 C 3,4 C 88 % 0 lf 1017,6 hPa 0,0 l/m 0 min 0,0 UV-I 56 W/m 18,0 km/h (3 Bft)
03.02.2013 12:32 4,3 C 3,4 C 88 % 0 lf 1017,6 hPa 0,0 l/m 0 min 0,0 UV-I 65 W/m 23,2 km/h (4 Bft)
03.02.2013 12:34 4,3 C 3,4 C 87 % 0 lf 1017,6 hPa 0,0 l/m 0 min 0,0 UV-I 72 W/m 23,2 km/h (4 Bft)
03.02.2013 12:36 4,3 C 3,4 C 87 % 0 lf 1017,5 hPa 0,0 l/m 0 min 0,0 UV-I 65 W/m 28,3 km/h (4 Bft)
03.02.2013 12:38 4,3 C 3,4 C 86 % 0 lf 1017,5 hPa 0,0 l/m 0 min 0,0 UV-I 74 W/m 15,4 km/h (3 Bft)
03.02.2013 12:40 4,3 C 3,4 C 86 % 0 lf 1017,5 hPa 0,0 l/m 0 min 0,0 UV-I 70 W/m 23,2 km/h (4 Bft)
03.02.2013 12:42 4,3 C 3,4 C 86 % 0 lf 1017,4 hPa 0,0 l/m 0 min 0,0 UV-I 84 W/m 25,7 km/h (4 Bft)
03.02.2013 12:44 4,4 C 3,4 C 86 % 0 lf 1017,4 hPa 0,0 l/m 0 min 0,0 UV-I 76 W/m 12,9 km/h (3 Bft)
03.02.2013 12:46 4,4 C 3,4 C 86 % 0 lf 1017,4 hPa 0,0 l/m 0 min 0,0 UV-I 79 W/m 20,6 km/h (4 Bft)
03.02.2013 12:48 4,4 C 3,4 C 86 % 0 lf 1017,4 hPa 0,0 l/m 0 min 0,0 UV-I 69 W/m 20,6 km/h (4 Bft)
03.02.2013 12:50 4,4 C 3,4 C 86 % 0 lf 1017,4 hPa 0,0 l/m 0 min 0,0 UV-I 81 W/m 12,9 km/h (3 Bft)
03.02.2013 12:52 4,4 C 3,4 C 86 % 0 lf 1017,2 hPa 0,0 l/m 0 min 0,0 UV-I 102 W/m 18,0 km/h (3 Bft)
03.02.2013 12:54 4,4 C 4,0 C 86 % 0 lf 1017,2 hPa 0,0 l/m 0 min 0,0 UV-I 114 W/m 20,6 km/h (4 Bft)
03.02.2013 12:56 4,4 C 4,0 C 86 % 0 lf 1017,2 hPa 0,0 l/m 0 min 0,0 UV-I 118 W/m 12,9 km/h (3 Bft)
03.02.2013 12:58 4,5 C 4,0 C 85 % 0 lf 1017,4 hPa 0,0 l/m 0 min 0,0 UV-I 125 W/m 12,9 km/h (3 Bft)
03.02.2013 13:00 4,5 C 4,0 C 85 % 0 lf 1017,3 hPa 0,0 l/m 0 min 0,0 UV-I 135 W/m 25,7 km/h (4 Bft)
03.02.2013 13:02 4,5 C 4,0 C 85 % 0 lf 1017,2 hPa 0,0 l/m 0 min 0,0 UV-I 141 W/m 28,3 km/h (4 Bft)
03.02.2013 13:06 4,6 C 4,0 C 84 % 0 lf 1016,7 hPa 0,0 l/m 0 min 0,0 UV-I 146 W/m 15,4 km/h (3 Bft)
03.02.2013 13:08 4,6 C 4,0 C 84 % 0 lf 1016,7 hPa 0,0 l/m 0 min 0,0 UV-I 148 W/m 20,6 km/h (4 Bft)
03.02.2013 13:10 4,6 C 4,0 C 84 % 0 lf 1016,7 hPa 0,0 l/m 0 min 0,0 UV-I 151 W/m 20,6 km/h (4 Bft)
03.02.2013 13:12 4,6 C 4,0 C 83 % 0 lf 1016,6 hPa 0,0 l/m 0 min 0,0 UV-I 151 W/m 18,0 km/h (3 Bft)
03.02.2013 13:14 4,6 C 4,0 C 83 % 0 lf 1016,3 hPa 0,0 l/m 0 min 0,0 UV-I 149 W/m 30,9 km/h (5 Bft)
03.02.2013 13:16 4,7 C 4,0 C 83 % 0 lf 1016,6 hPa 0,0 l/m 0 min 0,0 UV-I 144 W/m 20,6 km/h (4 Bft)
03.02.2013 13:18 4,7 C 4,0 C 83 % 0 lf 1016,3 hPa 0,0 l/m 0 min 0,0 UV-I 142 W/m 20,6 km/h (4 Bft)
03.02.2013 13:20 4,7 C 4,0 C 83 % 0 lf 1016,3 hPa 0,0 l/m 0 min 0,0 UV-I 137 W/m 12,9 km/h (3 Bft)
03.02.2013 13:22 4,7 C 4,0 C 83 % 0 lf 1016,0 hPa 0,0 l/m 0 min 0,0 UV-I 137 W/m 18,0 km/h (3 Bft)
03.02.2013 13:24 4,7 C 4,0 C 83 % 0 lf 1016,2 hPa 0,0 l/m 0 min 0,0 UV-I 141 W/m 12,9 km/h (3 Bft)
03.02.2013 13:26 4,7 C 4,0 C 83 % 0 lf 1016,1 hPa 0,0 l/m 0 min 0,0 UV-I 134 W/m 18,0 km/h (3 Bft)
03.02.2013 13:28 4,7 C 4,0 C 84 % 0 lf 1016,2 hPa 0,0 l/m 0 min 0,0 UV-I 128 W/m 20,6 km/h (4 Bft)
03.02.2013 13:30 4,7 C 4,0 C 83 % 0 lf 1016,0 hPa 0,0 l/m 0 min 0,0 UV-I 114 W/m 18,0 km/h (3 Bft)
03.02.2013 13:32 4,7 C 4,0 C 83 % 0 lf 1016,2 hPa 0,0 l/m 0 min 0,0 UV-I 125 W/m 7,7 km/h (2 Bft)
03.02.2013 13:34 4,7 C 4,0 C 84 % 0 lf 1016,2 hPa 0,0 l/m 0 min 0,0 UV-I 116 W/m 12,9 km/h (3 Bft)
03.02.2013 13:36 4,7 C 4,0 C 84 % 0 lf 1016,1 hPa 0,0 l/m 0 min 0,0 UV-I 125 W/m 15,4 km/h (3 Bft)
03.02.2013 13:38 4,7 C 4,0 C 84 % 0 lf 1016,1 hPa 0,0 l/m 0 min 0,0 UV-I 132 W/m 10,3 km/h (2 Bft)
03.02.2013 13:40 4,7 C 4,0 C 84 % 0 lf 1016,3 hPa 0,0 l/m 0 min 0,0 UV-I 134 W/m 20,6 km/h (4 Bft)
03.02.2013 13:42 4,7 C 4,0 C 83 % 0 lf 1016,0 hPa 0,0 l/m 0 min 0,0 UV-I 135 W/m 18,0 km/h (3 Bft)
03.02.2013 13:44 4,7 C 4,0 C 82 % 0 lf 1016,3 hPa 0,0 l/m 0 min 0,0 UV-I 141 W/m 25,7 km/h (4 Bft)
03.02.2013 13:46 4,7 C 4,0 C 82 % 0 lf 1015,9 hPa 0,0 l/m 0 min 0,0 UV-I 144 W/m 10,3 km/h (2 Bft)
03.02.2013 13:48 4,7 C 4,0 C 82 % 0 lf 1015,8 hPa 0,0 l/m 0 min 0,0 UV-I 141 W/m 10,3 km/h (2 Bft)
03.02.2013 13:50 4,7 C 4,0 C 82 % 0 lf 1015,8 hPa 0,0 l/m 0 min 0,0 UV-I 141 W/m 12,9 km/h (3 Bft)
03.02.2013 13:52 4,7 C 4,0 C 81 % 0 lf 1016,1 hPa 0,0 l/m 0 min 0,0 UV-I 142 W/m 23,2 km/h (4 Bft)
03.02.2013 13:54 4,7 C 4,0 C 79 % 0 lf 1015,8 hPa 0,0 l/m 0 min 0,0 UV-I 144 W/m 25,7 km/h (4 Bft)
03.02.2013 13:56 4,6 C 4,0 C 79 % 0 lf 1015,8 hPa 0,0 l/m 0 min 0,0 UV-I 144 W/m 25,7 km/h (4 Bft)
03.02.2013 13:58 4,6 C 4,0 C 78 % 0 lf 1015,8 hPa 0,0 l/m 0 min 0,0 UV-I 141 W/m 30,9 km/h (5 Bft)
03.02.2013 14:00 4,6 C 4,0 C 78 % 0 lf 1015,6 hPa 0,0 l/m 0 min 0,0 UV-I 139 W/m 15,4 km/h (3 Bft)
03.02.2013 14:02 4,6 C 4,0 C 78 % 0 lf 1015,6 hPa 0,0 l/m 0 min 0,0 UV-I 135 W/m 28,3 km/h (4 Bft)
03.02.2013 14:06 4,6 C 4,0 C 77 % 0 lf 1015,4 hPa 0,0 l/m 0 min 0,0 UV-I 135 W/m 33,5 km/h (5 Bft)
03.02.2013 14:08 4,6 C 4,0 C 77 % 0 lf 1015,5 hPa 0,0 l/m 0 min 0,0 UV-I 128 W/m 15,4 km/h (3 Bft)
03.02.2013 14:10 4,6 C 4,0 C 78 % 0 lf 1015,3 hPa 0,0 l/m 0 min 0,0 UV-I 121 W/m 15,4 km/h (3 Bft)
03.02.2013 14:12 4,6 C 4,0 C 78 % 0 lf 1015,2 hPa 0,0 l/m 0 min 0,0 UV-I 116 W/m 18,0 km/h (3 Bft)
03.02.2013 14:14 4,6 C 3,4 C 77 % 0 lf 1015,4 hPa 0,0 l/m 0 min 0,0 UV-I 102 W/m 25,7 km/h (4 Bft)
03.02.2013 14:16 4,5 C 3,4 C 75 % 0 lf 1015,2 hPa 0,0 l/m 0 min 0,0 UV-I 98 W/m 25,7 km/h (4 Bft)
03.02.2013 14:18 4,4 C 3,4 C 74 % 0 lf 1015,1 hPa 0,0 l/m 0 min 0,0 UV-I 95 W/m 30,9 km/h (5 Bft)
03.02.2013 14:20 4,4 C 3,4 C 74 % 0 lf 1015,1 hPa 0,0 l/m 0 min 0,0 UV-I 86 W/m 12,9 km/h (3 Bft)
03.02.2013 14:22 4,4 C 3,4 C 75 % 0 lf 1015,1 hPa 0,0 l/m 0 min 0,0 UV-I 83 W/m 12,9 km/h (3 Bft)
03.02.2013 14:24 4,4 C 3,4 C 75 % 0 lf 1015,1 hPa 0,0 l/m 0 min 0,0 UV-I 84 W/m 25,7 km/h (4 Bft)
03.02.2013 14:26 4,4 C 3,4 C 75 % 0 lf 1015,1 hPa 0,0 l/m 0 min 0,0 UV-I 83 W/m 23,2 km/h (4 Bft)
03.02.2013 14:28 4,4 C 3,4 C 75 % 0 lf 1015,1 hPa 0,0 l/m 0 min 0,0 UV-I 81 W/m 25,7 km/h (4 Bft)
03.02.2013 14:30 4,3 C 3,4 C 75 % 0 lf 1015,2 hPa 0,0 l/m 0 min 0,0 UV-I 76 W/m 23,2 km/h (4 Bft)
03.02.2013 14:32 4,3 C 3,4 C 74 % 0 lf 1015,0 hPa 0,0 l/m 0 min 0,0 UV-I 70 W/m 20,6 km/h (4 Bft)
03.02.2013 14:34 4,3 C 3,4 C 75 % 0 lf 1014,9 hPa 0,0 l/m 0 min 0,0 UV-I 72 W/m 12,9 km/h (3 Bft)
03.02.2013 14:36 4,3 C 3,4 C 74 % 0 lf 1015,0 hPa 0,0 l/m 0 min 0,0 UV-I 74 W/m 25,7 km/h (4 Bft)
03.02.2013 14:38 4,2 C 2,9 C 74 % 0 lf 1014,9 hPa 0,0 l/m 0 min 0,0 UV-I 65 W/m 25,7 km/h (4 Bft)
03.02.2013 14:40 4,2 C 2,9 C 74 % 0 lf 1014,8 hPa 0,0 l/m 0 min 0,0 UV-I 63 W/m 12,9 km/h (3 Bft)
03.02.2013 14:42 4,2 C 2,9 C 75 % 0 lf 1014,7 hPa 0,0 l/m 0 min 0,0 UV-I 62 W/m 18,0 km/h (3 Bft)
03.02.2013 14:44 4,2 C 2,9 C 75 % 0 lf 1014,8 hPa 0,0 l/m 0 min 0,0 UV-I 53 W/m 18,0 km/h (3 Bft)
03.02.2013 14:46 4,2 C 2,9 C 75 % 0 lf 1014,7 hPa 0,0 l/m 0 min 0,0 UV-I 49 W/m 10,3 km/h (2 Bft)
03.02.2013 14:48 4,1 C 2,9 C 74 % 0 lf 1014,7 hPa 0,0 l/m 0 min 0,0 UV-I 51 W/m 28,3 km/h (4 Bft)
03.02.2013 14:50 4,1 C 2,9 C 74 % 0 lf 1014,7 hPa 0,0 l/m 0 min 0,0 UV-I 49 W/m 10,3 km/h (2 Bft)
03.02.2013 14:52 4,1 C 2,9 C 74 % 0 lf 1014,6 hPa 0,0 l/m 0 min 0,0 UV-I 49 W/m 23,2 km/h (4 Bft)
03.02.2013 14:54 4,1 C 2,9 C 75 % 0 lf 1014,5 hPa 0,0 l/m 0 min 0,0 UV-I 46 W/m 20,6 km/h (4 Bft)
03.02.2013 14:56 4,1 C 2,9 C 75 % 0 lf 1014,5 hPa 0,0 l/m 0 min 0,0 UV-I 42 W/m 10,3 km/h (2 Bft)
03.02.2013 14:58 4,1 C 2,9 C 76 % 0 lf 1014,5 hPa 0,0 l/m 0 min 0,0 UV-I 40 W/m 7,7 km/h (2 Bft)
03.02.2013 15:00 4,0 C 2,9 C 76 % 0 lf 1014,6 hPa 0,0 l/m 0 min 0,0 UV-I 37 W/m 15,4 km/h (3 Bft)
03.02.2013 15:02 4,0 C 2,9 C 76 % 0 lf 1014,5 hPa 0,0 l/m 0 min 0,0 UV-I 35 W/m 18,0 km/h (3 Bft)
03.02.2013 15:06 3,9 C 2,9 C 76 % 0 lf 1014,5 hPa 0,0 l/m 0 min 0,0 UV-I 35 W/m 25,7 km/h (4 Bft)
03.02.2013 15:08 3,9 C 2,9 C 76 % 0 lf 1014,5 hPa 0,0 l/m 0 min 0,0 UV-I 32 W/m 18,0 km/h (3 Bft)
03.02.2013 15:10 3,9 C 2,9 C 76 % 0 lf 1014,5 hPa 0,0 l/m 0 min 0,0 UV-I 28 W/m 15,4 km/h (3 Bft)
03.02.2013 15:12 3,9 C 2,9 C 76 % 0 lf 1014,5 hPa 0,0 l/m 0 min 0,0 UV-I 26 W/m 20,6 km/h (4 Bft)
03.02.2013 15:14 3,9 C 2,9 C 77 % 0 lf 1014,3 hPa 0,0 l/m 0 min 0,0 UV-I 26 W/m 15,4 km/h (3 Bft)
03.02.2013 15:16 3,9 C 2,9 C 77 % 0 lf 1014,2 hPa 0,0 l/m 0 min 0,0 UV-I 26 W/m 28,3 km/h (4 Bft)
03.02.2013 15:18 3,9 C 2,9 C 77 % 0 lf 1014,0 hPa 0,0 l/m 0 min 0,0 UV-I 28 W/m 18,0 km/h (3 Bft)
03.02.2013 15:20 3,9 C 2,9 C 77 % 0 lf 1014,1 hPa 0,0 l/m 0 min 0,0 UV-I 26 W/m 12,9 km/h (3 Bft)
03.02.2013 15:22 3,9 C 2,9 C 77 % 0 lf 1014,1 hPa 0,0 l/m 0 min 0,0 UV-I 25 W/m 36,0 km/h (5 Bft)
03.02.2013 15:24 3,9 C 2,9 C 77 % 0 lf 1014,0 hPa 0,0 l/m 0 min 0,0 UV-I 25 W/m 18,0 km/h (3 Bft)
03.02.2013 15:26 3,9 C 2,9 C 77 % 0 lf 1014,0 hPa 0,0 l/m 0 min 0,0 UV-I 21 W/m 28,3 km/h (4 Bft)
03.02.2013 15:28 3,9 C 2,9 C 77 % 0 lf 1013,9 hPa 0,0 l/m 0 min 0,0 UV-I 21 W/m 18,0 km/h (3 Bft)
03.02.2013 15:30 3,9 C 2,9 C 78 % 0 lf 1013,8 hPa 0,0 l/m 0 min 0,0 UV-I 19 W/m 15,4 km/h (3 Bft)
03.02.2013 15:32 3,9 C 2,9 C 78 % 0 lf 1013,7 hPa 0,0 l/m 0 min 0,0 UV-I 19 W/m 15,4 km/h (3 Bft)
03.02.2013 15:34 3,9 C 2,9 C 78 % 0 lf 1013,8 hPa 0,0 l/m 0 min 0,0 UV-I 19 W/m 20,6 km/h (4 Bft)
03.02.2013 15:36 3,9 C 2,9 C 78 % 0 lf 1013,7 hPa 0,0 l/m 0 min 0,0 UV-I 16 W/m 20,6 km/h (4 Bft)
03.02.2013 15:38 3,9 C 2,9 C 78 % 0 lf 1013,6 hPa 0,0 l/m 0 min 0,0 UV-I 16 W/m 28,3 km/h (4 Bft)
03.02.2013 15:40 3,9 C 2,9 C 78 % 0 lf 1013,7 hPa 0,0 l/m 0 min 0,0 UV-I 16 W/m 23,2 km/h (4 Bft)
03.02.2013 15:42 3,9 C 2,9 C 79 % 2 lf 1013,5 hPa 0,0 l/m 0 min 0,0 UV-I 18 W/m 5,1 km/h (1 Bft)
03.02.2013 15:44 3,9 C 2,9 C 79 % 2 lf 1013,5 hPa 0,0 l/m 0 min 0,0 UV-I 19 W/m 18,0 km/h (3 Bft)
03.02.2013 15:46 3,9 C 2,3 C 80 % 4 lf 1013,4 hPa 0,0 l/m 0 min 0,0 UV-I 18 W/m 15,4 km/h (3 Bft)
03.02.2013 15:48 3,9 C 2,3 C 80 % 3 lf 1013,4 hPa 0,0 l/m 0 min 0,0 UV-I 18 W/m 15,4 km/h (3 Bft)
03.02.2013 15:50 3,8 C 2,3 C 81 % 4 lf 1013,4 hPa 0,0 l/m 0 min 0,0 UV-I 18 W/m 25,7 km/h (4 Bft)
03.02.2013 15:52 3,8 C 2,3 C 81 % 15 lf 1013,3 hPa 0,0 l/m 0 min 0,0 UV-I 19 W/m 10,3 km/h (2 Bft)
03.02.2013 15:54 3,8 C 2,3 C 82 % 15 lf 1013,2 hPa 0,0 l/m 0 min 0,0 UV-I 19 W/m 23,2 km/h (4 Bft)
03.02.2013 15:56 3,8 C 2,3 C 82 % 15 lf 1013,3 hPa 0,0 l/m 0 min 0,0 UV-I 19 W/m 15,4 km/h (3 Bft)
03.02.2013 15:58 3,8 C 2,3 C 83 % 13 lf 1013,2 hPa 0,0 l/m 0 min 0,0 UV-I 23 W/m 20,6 km/h (4 Bft)
03.02.2013 16:00 3,7 C 2,3 C 83 % 3 lf 1013,3 hPa 0,0 l/m 0 min 0,0 UV-I 25 W/m 33,5 km/h (5 Bft)
03.02.2013 16:02 3,7 C 2,3 C 82 % 1 lf 1013,1 hPa 0,0 l/m 0 min 0,0 UV-I 23 W/m 23,2 km/h (4 Bft)
03.02.2013 16:06 3,7 C 2,3 C 83 % 12 lf 1013,2 hPa 0,0 l/m 0 min 0,0 UV-I 19 W/m 30,9 km/h (5 Bft)
03.02.2013 16:08 3,7 C 2,3 C 83 % 12 lf 1013,0 hPa 0,0 l/m 0 min 0,0 UV-I 19 W/m 23,2 km/h (4 Bft)
03.02.2013 16:10 3,7 C 2,3 C 83 % 13 lf 1013,1 hPa 0,0 l/m 0 min 0,0 UV-I 21 W/m 36,0 km/h (5 Bft)
03.02.2013 16:12 3,7 C 2,3 C 83 % 15 lf 1013,2 hPa 0,0 l/m 0 min 0,0 UV-I 18 W/m 18,0 km/h (3 Bft)
03.02.2013 16:14 3,7 C 2,3 C 84 % 15 lf 1013,2 hPa 0,0 l/m 0 min 0,0 UV-I 14 W/m 18,0 km/h (3 Bft)
03.02.2013 16:16 3,7 C 1,8 C 85 % 15 lf 1013,0 hPa 0,0 l/m 0 min 0,0 UV-I 12 W/m 30,9 km/h (5 Bft)
03.02.2013 16:18 3,6 C 1,8 C 85 % 15 lf 1013,1 hPa 0,0 l/m 0 min 0,0 UV-I 14 W/m 23,2 km/h (4 Bft)
03.02.2013 16:20 3,6 C 1,8 C 86 % 15 lf 1012,8 hPa 0,0 l/m 0 min 0,0 UV-I 14 W/m 30,9 km/h (5 Bft)
03.02.2013 16:22 3,5 C 1,8 C 86 % 15 lf 1012,8 hPa 0,0 l/m 0 min 0,0 UV-I 14 W/m 28,3 km/h (4 Bft)
03.02.2013 16:24 3,4 C 1,2 C 87 % 15 lf 1012,8 hPa 0,0 l/m 0 min 0,0 UV-I 12 W/m 12,9 km/h (3 Bft)
03.02.2013 16:26 3,3 C 1,2 C 87 % 15 lf 1012,7 hPa 0,0 l/m 0 min 0,0 UV-I 12 W/m 20,6 km/h (4 Bft)
03.02.2013 16:28 3,3 C 1,2 C 88 % 15 lf 1012,7 hPa 0,0 l/m 0 min 0,0 UV-I 12 W/m 25,7 km/h (4 Bft)
03.02.2013 16:30 3,3 C 1,2 C 88 % 15 lf 1012,7 hPa 0,0 l/m 0 min 0,0 UV-I 12 W/m 20,6 km/h (4 Bft)
03.02.2013 16:32 3,3 C 1,2 C 89 % 15 lf 1012,6 hPa 0,0 l/m 0 min 0,0 UV-I 11 W/m 20,6 km/h (4 Bft)
03.02.2013 16:34 3,2 C 1,2 C 89 % 15 lf 1012,7 hPa 0,0 l/m 0 min 0,0 UV-I 7 W/m 15,4 km/h (3 Bft)
03.02.2013 16:36 3,2 C 1,2 C 89 % 15 lf 1012,7 hPa 0,0 l/m 0 min 0,0 UV-I 7 W/m 20,6 km/h (4 Bft)
03.02.2013 16:38 3,2 C 1,8 C 89 % 15 lf 1012,6 hPa 0,0 l/m 0 min 0,0 UV-I 9 W/m 20,6 km/h (4 Bft)
03.02.2013 16:40 3,2 C 1,8 C 89 % 15 lf 1012,6 hPa 0,0 l/m 0 min 0,0 UV-I 5 W/m 23,2 km/h (4 Bft)
03.02.2013 16:42 3,2 C 1,8 C 90 % 15 lf 1012,7 hPa 0,0 l/m 0 min 0,0 UV-I 5 W/m 23,2 km/h (4 Bft)
03.02.2013 16:44 3,2 C 1,8 C 90 % 15 lf 1012,6 hPa 0,0 l/m 0 min 0,0 UV-I 7 W/m 28,3 km/h (4 Bft)
03.02.2013 16:46 3,2 C 1,8 C 90 % 15 lf 1012,6 hPa 0,0 l/m 0 min 0,0 UV-I 5 W/m 15,4 km/h (3 Bft)
03.02.2013 16:48 3,2 C 1,8 C 90 % 15 lf 1012,8 hPa 0,0 l/m 0 min 0,0 UV-I 9 W/m 28,3 km/h (4 Bft)
03.02.2013 16:50 3,2 C 1,8 C 90 % 15 lf 1012,4 hPa 0,0 l/m 0 min 0,0 UV-I 5 W/m 18,0 km/h (3 Bft)
03.02.2013 16:52 3,2 C 1,8 C 91 % 15 lf 1012,7 hPa 0,0 l/m 0 min 0,0 UV-I 5 W/m 15,4 km/h (3 Bft)
03.02.2013 16:54 3,2 C 1,8 C 91 % 15 lf 1012,6 hPa 0,0 l/m 0 min 0,0 UV-I 0 W/m 15,4 km/h (3 Bft)
03.02.2013 16:56 3,2 C 1,8 C 91 % 15 lf 1012,7 hPa 0,0 l/m 0 min 0,0 UV-I 0 W/m 15,4 km/h (3 Bft)
03.02.2013 16:58 3,1 C 1,8 C 91 % 15 lf 1012,3 hPa 0,0 l/m 0 min 0,0 UV-I 0 W/m 12,9 km/h (3 Bft)
03.02.2013 17:00 3,1 C 1,8 C 91 % 15 lf 1012,5 hPa 0,0 l/m 0 min 0,0 UV-I 0 W/m 15,4 km/h (3 Bft)
03.02.2013 17:02 3,1 C 1,8 C 92 % 15 lf 1012,6 hPa 0,0 l/m 0 min 0,0 UV-I 0 W/m 18,0 km/h (3 Bft)
03.02.2013 17:06 3,1 C 1,8 C 92 % 15 lf 1012,6 hPa 0,0 l/m 0 min 0,0 UV-I 0 W/m 18,0 km/h (3 Bft)
03.02.2013 17:08 3,1 C 1,8 C 92 % 15 lf 1012,6 hPa 0,0 l/m 0 min 0,0 UV-I 0 W/m 18,0 km/h (3 Bft)
03.02.2013 17:10 3,1 C 1,8 C 92 % 15 lf 1012,5 hPa 0,0 l/m 0 min 0,0 UV-I 0 W/m 18,0 km/h (3 Bft)
03.02.2013 17:12 3,1 C 1,8 C 92 % 15 lf 1012,4 hPa 0,0 l/m 0 min 0,0 UV-I 0 W/m 18,0 km/h (3 Bft)
03.02.2013 17:14 3,1 C 1,8 C 93 % 15 lf 1012,6 hPa 0,0 l/m 0 min 0,0 UV-I 0 W/m 18,0 km/h (3 Bft)
03.02.2013 17:16 3,1 C 1,8 C 93 % 15 lf 1012,8 hPa 0,0 l/m 0 min 0,0 UV-I 0 W/m 28,3 km/h (4 Bft)
03.02.2013 17:18 3,1 C 1,8 C 93 % 15 lf 1012,7 hPa 0,0 l/m 0 min 0,0 UV-I 0 W/m 10,3 km/h (2 Bft)
03.02.2013 17:20 3,1 C 1,8 C 93 % 15 lf 1012,6 hPa 0,0 l/m 0 min 0,0 UV-I 0 W/m 15,4 km/h (3 Bft)
03.02.2013 17:22 3,1 C 1,8 C 93 % 15 lf 1012,6 hPa 0,0 l/m 0 min 0,0 UV-I 0 W/m 15,4 km/h (3 Bft)
03.02.2013 17:24 3,1 C 1,8 C 93 % 15 lf 1012,5 hPa 0,0 l/m 0 min 0,0 UV-I 0 W/m 28,3 km/h (4 Bft)
03.02.2013 17:26 3,1 C 1,8 C 94 % 15 lf 1012,6 hPa 0,0 l/m 0 min 0,0 UV-I 0 W/m 30,9 km/h (5 Bft)
03.02.2013 17:28 3,1 C 1,8 C 94 % 15 lf 1012,6 hPa 0,0 l/m 0 min 0,0 UV-I 0 W/m 20,6 km/h (4 Bft)
03.02.2013 17:30 3,1 C 1,8 C 94 % 15 lf 1012,5 hPa 0,0 l/m 0 min 0,0 UV-I 0 W/m 15,4 km/h (3 Bft)
03.02.2013 17:32 3,1 C 1,8 C 94 % 15 lf 1012,4 hPa 0,0 l/m 0 min 0,0 UV-I 0 W/m 23,2 km/h (4 Bft)
03.02.2013 17:34 3,1 C 1,8 C 94 % 15 lf 1012,3 hPa 0,0 l/m 0 min 0,0 UV-I 0 W/m 25,7 km/h (4 Bft)
03.02.2013 17:36 3,1 C 1,8 C 94 % 15 lf 1012,3 hPa 0,0 l/m 0 min 0,0 UV-I 0 W/m 12,9 km/h (3 Bft)
03.02.2013 17:38 3,1 C 1,8 C 94 % 15 lf 1012,3 hPa 0,2 l/m 0 min 0,0 UV-I 0 W/m 28,3 km/h (4 Bft)
03.02.2013 17:40 3,1 C 1,8 C 94 % 15 lf 1012,4 hPa 0,0 l/m 0 min 0,0 UV-I 0 W/m 20,6 km/h (4 Bft)
03.02.2013 17:42 3,1 C 1,8 C 95 % 15 lf 1012,4 hPa 0,0 l/m 0 min 0,0 UV-I 0 W/m 20,6 km/h (4 Bft)
03.02.2013 17:44 3,1 C 1,8 C 95 % 15 lf 1012,4 hPa 0,0 l/m 0 min 0,0 UV-I 0 W/m 15,4 km/h (3 Bft)
03.02.2013 17:46 3,1 C 1,8 C 95 % 15 lf 1012,5 hPa 0,0 l/m 0 min 0,0 UV-I 0 W/m 23,2 km/h (4 Bft)
03.02.2013 17:48 3,1 C 1,8 C 95 % 15 lf 1012,4 hPa 0,0 l/m 0 min 0,0 UV-I 0 W/m 18,0 km/h (3 Bft)
03.02.2013 17:50 3,1 C 1,8 C 95 % 15 lf 1012,3 hPa 0,0 l/m 0 min 0,0 UV-I 0 W/m 28,3 km/h (4 Bft)
03.02.2013 17:52 3,1 C 1,8 C 95 % 15 lf 1012,2 hPa 0,0 l/m 0 min 0,0 UV-I 0 W/m 38,6 km/h (5 Bft)
03.02.2013 17:54 3,2 C 1,8 C 95 % 15 lf 1012,3 hPa 0,0 l/m 0 min 0,0 UV-I 0 W/m 38,6 km/h (5 Bft)
03.02.2013 17:56 3,2 C 1,8 C 95 % 15 lf 1012,3 hPa 0,0 l/m 0 min 0,0 UV-I 0 W/m 18,0 km/h (3 Bft)
03.02.2013 17:58 3,2 C 1,8 C 95 % 15 lf 1012,3 hPa 0,2 l/m 0 min 0,0 UV-I 0 W/m 30,9 km/h (5 Bft)
03.02.2013 18:00 3,2 C 1,8 C 95 % 15 lf 1012,3 hPa 0,0 l/m 0 min 0,0 UV-I 0 W/m 18,0 km/h (3 Bft)
03.02.2013 18:02 3,2 C 1,8 C 95 % 15 lf 1012,3 hPa 0,0 l/m 0 min 0,0 UV-I 0 W/m 36,0 km/h (5 Bft)
03.02.2013 18:06 3,2 C 1,8 C 96 % 15 lf 1012,2 hPa 0,0 l/m 0 min 0,0 UV-I 0 W/m 28,3 km/h (4 Bft)
03.02.2013 18:08 3,2 C 1,8 C 96 % 15 lf 1012,1 hPa 0,0 l/m 0 min 0,0 UV-I 0 W/m 33,5 km/h (5 Bft)
03.02.2013 18:10 3,2 C 1,8 C 96 % 15 lf 1012,1 hPa 0,0 l/m 0 min 0,0 UV-I 0 W/m 23,2 km/h (4 Bft)
03.02.2013 18:12 3,2 C 1,8 C 96 % 15 lf 1012,3 hPa 0,0 l/m 0 min 0,0 UV-I 0 W/m 33,5 km/h (5 Bft)
03.02.2013 18:14 3,2 C 1,8 C 96 % 15 lf 1012,1 hPa 0,0 l/m 0 min 0,0 UV-I 0 W/m 20,6 km/h (4 Bft)
03.02.2013 18:16 3,2 C 1,8 C 96 % 15 lf 1012,2 hPa 0,0 l/m 0 min 0,0 UV-I 0 W/m 20,6 km/h (4 Bft)
03.02.2013 18:18 3,2 C 1,8 C 96 % 15 lf 1012,2 hPa 0,0 l/m 0 min 0,0 UV-I 0 W/m 15,4 km/h (3 Bft)
03.02.2013 18:20 3,2 C 1,8 C 96 % 15 lf 1012,3 hPa 0,0 l/m 0 min 0,0 UV-I 0 W/m 15,4 km/h (3 Bft)
03.02.2013 18:22 3,2 C 1,8 C 96 % 15 lf 1012,1 hPa 0,0 l/m 0 min 0,0 UV-I 0 W/m 18,0 km/h (3 Bft)
03.02.2013 18:24 3,2 C 1,8 C 96 % 15 lf 1012,0 hPa 0,0 l/m 0 min 0,0 UV-I 0 W/m 20,6 km/h (4 Bft)
03.02.2013 18:26 3,2 C 1,8 C 96 % 15 lf 1012,0 hPa 0,0 l/m 0 min 0,0 UV-I 0 W/m 18,0 km/h (3 Bft)
03.02.2013 18:28 3,2 C 1,8 C 96 % 15 lf 1011,9 hPa 0,0 l/m 0 min 0,0 UV-I 0 W/m 30,9 km/h (5 Bft)
03.02.2013 18:30 3,2 C 1,8 C 96 % 15 lf 1012,1 hPa 0,0 l/m 0 min 0,0 UV-I 0 W/m 18,0 km/h (3 Bft)
03.02.2013 18:32 3,2 C 1,8 C 96 % 15 lf 1012,0 hPa 0,0 l/m 0 min 0,0 UV-I 0 W/m 10,3 km/h (2 Bft)
03.02.2013 18:34 3,2 C 1,8 C 97 % 15 lf 1012,0 hPa 0,0 l/m 0 min 0,0 UV-I 0 W/m 20,6 km/h (4 Bft)
03.02.2013 18:36 3,2 C 1,8 C 97 % 15 lf 1012,0 hPa 0,0 l/m 0 min 0,0 UV-I 0 W/m 18,0 km/h (3 Bft)
03.02.2013 18:38 3,2 C 1,8 C 97 % 15 lf 1011,9 hPa 0,2 l/m 0 min 0,0 UV-I 0 W/m 23,2 km/h (4 Bft)
03.02.2013 18:40 3,2 C 1,8 C 97 % 15 lf 1011,9 hPa 0,0 l/m 0 min 0,0 UV-I 0 W/m 23,2 km/h (4 Bft)
03.02.2013 18:42 3,2 C 1,8 C 97 % 15 lf 1012,1 hPa 0,0 l/m 0 min 0,0 UV-I 0 W/m 28,3 km/h (4 Bft)
03.02.2013 18:44 3,2 C 1,8 C 97 % 15 lf 1011,9 hPa 0,0 l/m 0 min 0,0 UV-I 0 W/m 23,2 km/h (4 Bft)
03.02.2013 18:46 3,2 C 1,8 C 97 % 15 lf 1011,9 hPa 0,0 l/m 0 min 0,0 UV-I 0 W/m 20,6 km/h (4 Bft)
03.02.2013 18:48 3,2 C 1,8 C 97 % 15 lf 1012,0 hPa 0,0 l/m 0 min 0,0 UV-I 0 W/m 23,2 km/h (4 Bft)
03.02.2013 18:50 3,2 C 1,8 C 97 % 15 lf 1011,9 hPa 0,0 l/m 0 min 0,0 UV-I 0 W/m 20,6 km/h (4 Bft)
03.02.2013 18:52 3,3 C 1,8 C 97 % 15 lf 1011,7 hPa 0,0 l/m 0 min 0,0 UV-I 0 W/m 36,0 km/h (5 Bft)
03.02.2013 18:54 3,3 C 1,8 C 97 % 15 lf 1011,8 hPa 0,0 l/m 0 min 0,0 UV-I 0 W/m 33,5 km/h (5 Bft)
03.02.2013 18:56 3,3 C 1,8 C 97 % 15 lf 1011,8 hPa 0,0 l/m 0 min 0,0 UV-I 0 W/m 25,7 km/h (4 Bft)
03.02.2013 18:58 3,3 C 1,8 C 97 % 15 lf 1011,7 hPa 0,0 l/m 0 min 0,0 UV-I 0 W/m 15,4 km/h (3 Bft)
03.02.2013 19:00 3,3 C 1,8 C 97 % 15 lf 1011,7 hPa 0,0 l/m 0 min 0,0 UV-I 0 W/m 25,7 km/h (4 Bft)
03.02.2013 19:02 3,3 C 1,8 C 97 % 15 lf 1011,8 hPa 0,0 l/m 0 min 0,0 UV-I 0 W/m 25,7 km/h (4 Bft)
03.02.2013 19:06 3,3 C 2,3 C 97 % 15 lf 1011,7 hPa 0,0 l/m 0 min 0,0 UV-I 0 W/m 25,7 km/h (4 Bft)
03.02.2013 19:08 3,3 C 2,3 C 98 % 15 lf 1011,8 hPa 0,0 l/m 0 min 0,0 UV-I 0 W/m 23,2 km/h (4 Bft)
03.02.2013 19:10 3,3 C 2,3 C 98 % 15 lf 1011,9 hPa 0,0 l/m 0 min 0,0 UV-I 0 W/m 23,2 km/h (4 Bft)
03.02.2013 19:12 3,3 C 2,3 C 98 % 15 lf 1011,7 hPa 0,0 l/m 0 min 0,0 UV-I 0 W/m 25,7 km/h (4 Bft)
03.02.2013 19:14 3,3 C 2,3 C 98 % 15 lf 1011,7 hPa 0,0 l/m 0 min 0,0 UV-I 0 W/m 18,0 km/h (3 Bft)
03.02.2013 19:16 3,4 C 2,3 C 98 % 15 lf 1011,8 hPa 0,0 l/m 0 min 0,0 UV-I 0 W/m 20,6 km/h (4 Bft)
03.02.2013 19:18 3,4 C 2,3 C 98 % 15 lf 1011,8 hPa 0,0 l/m 0 min 0,0 UV-I 0 W/m 18,0 km/h (3 Bft)
03.02.2013 19:20 3,4 C 2,3 C 98 % 15 lf 1011,8 hPa 0,0 l/m 0 min 0,0 UV-I 0 W/m 20,6 km/h (4 Bft)
03.02.2013 19:22 3,4 C 2,3 C 98 % 15 lf 1011,8 hPa 0,0 l/m 0 min 0,0 UV-I 0 W/m 18,0 km/h (3 Bft)
03.02.2013 19:24 3,4 C 2,3 C 98 % 15 lf 1011,8 hPa 0,0 l/m 0 min 0,0 UV-I 0 W/m 18,0 km/h (3 Bft)
03.02.2013 19:26 3,4 C 2,3 C 98 % 15 lf 1011,9 hPa 0,0 l/m 0 min 0,0 UV-I 0 W/m 28,3 km/h (4 Bft)
03.02.2013 19:28 3,5 C 2,3 C 98 % 15 lf 1011,6 hPa 0,0 l/m 0 min 0,0 UV-I 0 W/m 18,0 km/h (3 Bft)
03.02.2013 19:30 3,5 C 2,3 C 98 % 15 lf 1011,6 hPa 0,0 l/m 0 min 0,0 UV-I 0 W/m 36,0 km/h (5 Bft)
03.02.2013 19:32 3,5 C 2,3 C 98 % 15 lf 1011,6 hPa 0,0 l/m 0 min 0,0 UV-I 0 W/m 33,5 km/h (5 Bft)
03.02.2013 19:34 3,6 C 2,3 C 98 % 15 lf 1011,7 hPa 0,0 l/m 0 min 0,0 UV-I 0 W/m 20,6 km/h (4 Bft)
03.02.2013 19:36 3,6 C 2,3 C 98 % 15 lf 1011,6 hPa 0,0 l/m 0 min 0,0 UV-I 0 W/m 25,7 km/h (4 Bft)
03.02.2013 19:38 3,6 C 2,3 C 98 % 15 lf 1011,5 hPa 0,2 l/m 0 min 0,0 UV-I 0 W/m 30,9 km/h (5 Bft)
03.02.2013 19:40 3,6 C 2,3 C 98 % 15 lf 1011,8 hPa 0,0 l/m 0 min 0,0 UV-I 0 W/m 18,0 km/h (3 Bft)
03.02.2013 19:42 3,6 C 2,3 C 98 % 15 lf 1011,6 hPa 0,0 l/m 0 min 0,0 UV-I 0 W/m 30,9 km/h (5 Bft)
03.02.2013 19:44 3,6 C 2,3 C 98 % 15 lf 1011,4 hPa 0,0 l/m 0 min 0,0 UV-I 0 W/m 30,9 km/h (5 Bft)
03.02.2013 19:46 3,7 C 2,3 C 98 % 15 lf 1011,5 hPa 0,0 l/m 0 min 0,0 UV-I 0 W/m 20,6 km/h (4 Bft)
03.02.2013 19:48 3,7 C 2,3 C 98 % 15 lf 1011,5 hPa 0,0 l/m 0 min 0,0 UV-I 0 W/m 23,2 km/h (4 Bft)
03.02.2013 19:50 3,7 C 2,3 C 98 % 15 lf 1011,3 hPa 0,2 l/m 0 min 0,0 UV-I 0 W/m 18,0 km/h (3 Bft)
03.02.2013 19:52 3,7 C 2,3 C 98 % 15 lf 1011,4 hPa 0,0 l/m 0 min 0,0 UV-I 0 W/m 18,0 km/h (3 Bft)
03.02.2013 19:54 3,7 C 2,3 C 98 % 15 lf 1011,4 hPa 0,0 l/m 0 min 0,0 UV-I 0 W/m 18,0 km/h (3 Bft)
03.02.2013 19:56 3,7 C 2,3 C 98 % 15 lf 1011,5 hPa 0,0 l/m 0 min 0,0 UV-I 0 W/m 10,3 km/h (2 Bft)
03.02.2013 19:58 3,7 C 2,3 C 98 % 15 lf 1011,4 hPa 0,0 l/m 0 min 0,0 UV-I 0 W/m 23,2 km/h (4 Bft)
03.02.2013 20:00 3,7 C 2,3 C 98 % 15 lf 1011,5 hPa 0,0 l/m 0 min 0,0 UV-I 0 W/m 28,3 km/h (4 Bft)
03.02.2013 20:02 3,7 C 2,3 C 98 % 15 lf 1011,3 hPa 0,0 l/m 0 min 0,0 UV-I 0 W/m 15,4 km/h (3 Bft)
03.02.2013 20:06 3,8 C 2,3 C 98 % 15 lf 1011,3 hPa 0,0 l/m 0 min 0,0 UV-I 0 W/m 25,7 km/h (4 Bft)
03.02.2013 20:08 3,8 C 2,3 C 98 % 15 lf 1011,3 hPa 0,0 l/m 0 min 0,0 UV-I 0 W/m 20,6 km/h (4 Bft)
03.02.2013 20:10 3,8 C 2,3 C 98 % 15 lf 1011,3 hPa 0,0 l/m 0 min 0,0 UV-I 0 W/m 18,0 km/h (3 Bft)
03.02.2013 20:12 3,8 C 2,9 C 98 % 15 lf 1011,3 hPa 0,0 l/m 0 min 0,0 UV-I 0 W/m 18,0 km/h (3 Bft)
03.02.2013 20:14 3,8 C 2,9 C 98 % 15 lf 1011,3 hPa 0,0 l/m 0 min 0,0 UV-I 0 W/m 18,0 km/h (3 Bft)
03.02.2013 20:16 3,9 C 2,9 C 98 % 15 lf 1011,3 hPa 0,0 l/m 0 min 0,0 UV-I 0 W/m 28,3 km/h (4 Bft)
03.02.2013 20:18 3,9 C 2,9 C 98 % 15 lf 1011,2 hPa 0,0 l/m 0 min 0,0 UV-I 0 W/m 20,6 km/h (4 Bft)
03.02.2013 20:20 3,9 C 2,9 C 98 % 15 lf 1011,4 hPa 0,0 l/m 0 min 0,0 UV-I 0 W/m 25,7 km/h (4 Bft)
03.02.2013 20:22 3,9 C 2,9 C 98 % 15 lf 1011,4 hPa 0,2 l/m 0 min 0,0 UV-I 0 W/m 25,7 km/h (4 Bft)
03.02.2013 20:24 3,9 C 2,9 C 98 % 15 lf 1011,3 hPa 0,0 l/m 0 min 0,0 UV-I 0 W/m 15,4 km/h (3 Bft)
03.02.2013 20:26 4,0 C 2,9 C 98 % 15 lf 1011,2 hPa 0,0 l/m 0 min 0,0 UV-I 0 W/m 20,6 km/h (4 Bft)
03.02.2013 20:28 4,0 C 2,9 C 98 % 15 lf 1011,3 hPa 0,0 l/m 0 min 0,0 UV-I 0 W/m 33,5 km/h (5 Bft)
03.02.2013 20:30 4,0 C 2,9 C 98 % 15 lf 1011,1 hPa 0,0 l/m 0 min 0,0 UV-I 0 W/m 12,9 km/h (3 Bft)
03.02.2013 20:32 4,0 C 2,9 C 98 % 15 lf 1011,3 hPa 0,0 l/m 0 min 0,0 UV-I 0 W/m 23,2 km/h (4 Bft)
03.02.2013 20:34 4,1 C 2,9 C 98 % 15 lf 1011,1 hPa 0,0 l/m 0 min 0,0 UV-I 0 W/m 20,6 km/h (4 Bft)
03.02.2013 20:36 4,1 C 2,9 C 98 % 15 lf 1011,0 hPa 0,0 l/m 0 min 0,0 UV-I 0 W/m 20,6 km/h (4 Bft)
03.02.2013 20:38 4,1 C 2,9 C 98 % 15 lf 1010,9 hPa 0,0 l/m 0 min 0,0 UV-I 0 W/m 20,6 km/h (4 Bft)
03.02.2013 20:40 4,1 C 2,9 C 98 % 15 lf 1011,1 hPa 0,0 l/m 0 min 0,0 UV-I 0 W/m 28,3 km/h (4 Bft)
03.02.2013 20:42 4,1 C 2,9 C 98 % 15 lf 1011,0 hPa 0,0 l/m 0 min 0,0 UV-I 0 W/m 20,6 km/h (4 Bft)
03.02.2013 20:44 4,1 C 2,9 C 98 % 15 lf 1010,8 hPa 0,0 l/m 0 min 0,0 UV-I 0 W/m 18,0 km/h (3 Bft)
03.02.2013 20:46 4,1 C 2,9 C 98 % 15 lf 1011,0 hPa 0,0 l/m 0 min 0,0 UV-I 0 W/m 18,0 km/h (3 Bft)
03.02.2013 20:48 4,2 C 2,9 C 98 % 15 lf 1011,1 hPa 0,0 l/m 0 min 0,0 UV-I 0 W/m 28,3 km/h (4 Bft)
03.02.2013 20:50 4,2 C 2,9 C 99 % 15 lf 1011,1 hPa 0,0 l/m 0 min 0,0 UV-I 0 W/m 20,6 km/h (4 Bft)
03.02.2013 20:52 4,2 C 2,9 C 99 % 15 lf 1011,1 hPa 0,0 l/m 0 min 0,0 UV-I 0 W/m 20,6 km/h (4 Bft)
03.02.2013 20:54 4,2 C 2,9 C 99 % 15 lf 1010,9 hPa 0,0 l/m 0 min 0,0 UV-I 0 W/m 23,2 km/h (4 Bft)
03.02.2013 20:56 4,2 C 2,9 C 99 % 15 lf 1011,0 hPa 0,0 l/m 0 min 0,0 UV-I 0 W/m 23,2 km/h (4 Bft)
03.02.2013 20:58 4,2 C 2,9 C 99 % 15 lf 1010,9 hPa 0,0 l/m 0 min 0,0 UV-I 0 W/m 10,3 km/h (2 Bft)
03.02.2013 21:00 4,3 C 2,9 C 99 % 15 lf 1011,0 hPa 0,2 l/m 0 min 0,0 UV-I 0 W/m 18,0 km/h (3 Bft)
03.02.2013 21:02 4,3 C 2,9 C 99 % 15 lf 1011,1 hPa 0,0 l/m 0 min 0,0 UV-I 0 W/m 18,0 km/h (3 Bft)
03.02.2013 21:06 4,3 C 2,9 C 99 % 15 lf 1011,1 hPa 0,0 l/m 0 min 0,0 UV-I 0 W/m 25,7 km/h (4 Bft)
03.02.2013 21:08 4,3 C 2,9 C 99 % 15 lf 1010,9 hPa 0,0 l/m 0 min 0,0 UV-I 0 W/m 12,9 km/h (3 Bft)
03.02.2013 21:10 4,3 C 2,9 C 99 % 15 lf 1010,9 hPa 0,0 l/m 0 min 0,0 UV-I 0 W/m 12,9 km/h (3 Bft)
03.02.2013 21:12 4,4 C 2,9 C 99 % 15 lf 1010,9 hPa 0,0 l/m 0 min 0,0 UV-I 0 W/m 25,7 km/h (4 Bft)
03.02.2013 21:14 4,4 C 3,4 C 99 % 15 lf 1010,9 hPa 0,0 l/m 0 min 0,0 UV-I 0 W/m 30,9 km/h (5 Bft)
03.02.2013 21:16 4,4 C 3,4 C 99 % 15 lf 1010,8 hPa 0,0 l/m 0 min 0,0 UV-I 0 W/m 23,2 km/h (4 Bft)
03.02.2013 21:18 4,4 C 3,4 C 99 % 15 lf 1010,7 hPa 0,0 l/m 0 min 0,0 UV-I 0 W/m 20,6 km/h (4 Bft)
03.02.2013 21:20 4,4 C 3,4 C 99 % 15 lf 1010,8 hPa 0,0 l/m 0 min 0,0 UV-I 0 W/m 23,2 km/h (4 Bft)
03.02.2013 21:22 4,4 C 3,4 C 99 % 15 lf 1010,8 hPa 0,0 l/m 0 min 0,0 UV-I 0 W/m 15,4 km/h (3 Bft)
03.02.2013 21:24 4,4 C 3,4 C 99 % 15 lf 1010,8 hPa 0,0 l/m 0 min 0,0 UV-I 0 W/m 18,0 km/h (3 Bft)
03.02.2013 21:26 4,5 C 3,4 C 99 % 15 lf 1010,8 hPa 0,0 l/m 0 min 0,0 UV-I 0 W/m 12,9 km/h (3 Bft)
03.02.2013 21:28 4,5 C 3,4 C 99 % 15 lf 1010,7 hPa 0,0 l/m 0 min 0,0 UV-I 0 W/m 28,3 km/h (4 Bft)
03.02.2013 21:30 4,5 C 3,4 C 99 % 15 lf 1010,7 hPa 0,0 l/m 0 min 0,0 UV-I 0 W/m 15,4 km/h (3 Bft)
03.02.2013 21:32 4,5 C 3,4 C 99 % 15 lf 1010,7 hPa 0,0 l/m 0 min 0,0 UV-I 0 W/m 20,6 km/h (4 Bft)
03.02.2013 21:34 4,6 C 3,4 C 99 % 15 lf 1010,7 hPa 0,0 l/m 0 min 0,0 UV-I 0 W/m 15,4 km/h (3 Bft)
03.02.2013 21:36 4,6 C 3,4 C 99 % 15 lf 1010,8 hPa 0,0 l/m 0 min 0,0 UV-I 0 W/m 20,6 km/h (4 Bft)
03.02.2013 21:38 4,6 C 3,4 C 99 % 15 lf 1010,7 hPa 0,0 l/m 0 min 0,0 UV-I 0 W/m 28,3 km/h (4 Bft)
03.02.2013 21:40 4,6 C 3,4 C 99 % 15 lf 1010,8 hPa 0,0 l/m 0 min 0,0 UV-I 0 W/m 12,9 km/h (3 Bft)
03.02.2013 21:42 4,6 C 3,4 C 99 % 15 lf 1010,6 hPa 0,0 l/m 0 min 0,0 UV-I 0 W/m 12,9 km/h (3 Bft)
03.02.2013 21:44 4,6 C 3,4 C 99 % 15 lf 1010,7 hPa 0,0 l/m 0 min 0,0 UV-I 0 W/m 20,6 km/h (4 Bft)
03.02.2013 21:46 4,6 C 3,4 C 99 % 15 lf 1010,6 hPa 0,0 l/m 0 min 0,0 UV-I 0 W/m 30,9 km/h (5 Bft)
03.02.2013 21:48 4,6 C 3,4 C 99 % 15 lf 1010,7 hPa 0,0 l/m 0 min 0,0 UV-I 0 W/m 33,5 km/h (5 Bft)
03.02.2013 21:50 4,6 C 3,4 C 99 % 15 lf 1010,6 hPa 0,2 l/m 0 min 0,0 UV-I 0 W/m 20,6 km/h (4 Bft)
03.02.2013 21:52 4,7 C 3,4 C 99 % 15 lf 1010,5 hPa 0,0 l/m 0 min 0,0 UV-I 0 W/m 12,9 km/h (3 Bft)
03.02.2013 21:54 4,7 C 3,4 C 99 % 15 lf 1010,6 hPa 0,0 l/m 0 min 0,0 UV-I 0 W/m 15,4 km/h (3 Bft)
03.02.2013 21:56 4,7 C 3,4 C 99 % 15 lf 1010,5 hPa 0,0 l/m 0 min 0,0 UV-I 0 W/m 15,4 km/h (3 Bft)
03.02.2013 21:58 4,7 C 3,4 C 99 % 15 lf 1010,5 hPa 0,0 l/m 0 min 0,0 UV-I 0 W/m 20,6 km/h (4 Bft)
03.02.2013 22:00 4,7 C 3,4 C 99 % 15 lf 1010,5 hPa 0,0 l/m 0 min 0,0 UV-I 0 W/m 23,2 km/h (4 Bft)
03.02.2013 22:02 4,7 C 3,4 C 99 % 15 lf 1010,6 hPa 0,0 l/m 0 min 0,0 UV-I 0 W/m 23,2 km/h (4 Bft)
03.02.2013 22:06 4,8 C 3,4 C 99 % 15 lf 1010,5 hPa 0,0 l/m 0 min 0,0 UV-I 0 W/m 15,4 km/h (3 Bft)
03.02.2013 22:08 4,8 C 3,4 C 99 % 15 lf 1010,4 hPa 0,0 l/m 0 min 0,0 UV-I 0 W/m 28,3 km/h (4 Bft)
03.02.2013 22:10 4,8 C 3,4 C 99 % 15 lf 1010,4 hPa 0,0 l/m 0 min 0,0 UV-I 0 W/m 18,0 km/h (3 Bft)
03.02.2013 22:12 4,8 C 3,4 C 99 % 15 lf 1010,4 hPa 0,0 l/m 0 min 0,0 UV-I 0 W/m 20,6 km/h (4 Bft)
03.02.2013 22:14 4,8 C 3,4 C 99 % 15 lf 1010,4 hPa 0,0 l/m 0 min 0,0 UV-I 0 W/m 23,2 km/h (4 Bft)
03.02.2013 22:16 4,8 C 3,4 C 99 % 15 lf 1010,5 hPa 0,0 l/m 0 min 0,0 UV-I 0 W/m 25,7 km/h (4 Bft)
03.02.2013 22:18 4,8 C 3,4 C 99 % 15 lf 1010,4 hPa 0,0 l/m 0 min 0,0 UV-I 0 W/m 23,2 km/h (4 Bft)
03.02.2013 22:20 4,8 C 3,4 C 99 % 15 lf 1010,5 hPa 0,0 l/m 0 min 0,0 UV-I 0 W/m 25,7 km/h (4 Bft)
03.02.2013 22:22 4,8 C 3,4 C 99 % 15 lf 1010,4 hPa 0,2 l/m 0 min 0,0 UV-I 0 W/m 25,7 km/h (4 Bft)
03.02.2013 22:24 4,8 C 3,4 C 99 % 15 lf 1010,4 hPa 0,0 l/m 0 min 0,0 UV-I 0 W/m 18,0 km/h (3 Bft)
03.02.2013 22:26 4,8 C 3,4 C 99 % 15 lf 1010,4 hPa 0,0 l/m 0 min 0,0 UV-I 0 W/m 18,0 km/h (3 Bft)
03.02.2013 22:28 4,8 C 3,4 C 99 % 15 lf 1010,6 hPa 0,0 l/m 0 min 0,0 UV-I 0 W/m 20,6 km/h (4 Bft)
03.02.2013 22:30 4,9 C 3,4 C 99 % 15 lf 1010,5 hPa 0,0 l/m 0 min 0,0 UV-I 0 W/m 15,4 km/h (3 Bft)
03.02.2013 22:32 4,9 C 3,4 C 99 % 15 lf 1010,5 hPa 0,0 l/m 0 min 0,0 UV-I 0 W/m 20,6 km/h (4 Bft)
03.02.2013 22:34 4,9 C 3,4 C 99 % 15 lf 1010,5 hPa 0,0 l/m 0 min 0,0 UV-I 0 W/m 20,6 km/h (4 Bft)
03.02.2013 22:36 4,9 C 3,4 C 99 % 15 lf 1010,5 hPa 0,0 l/m 0 min 0,0 UV-I 0 W/m 15,4 km/h (3 Bft)
03.02.2013 22:38 4,9 C 3,4 C 99 % 15 lf 1010,6 hPa 0,0 l/m 0 min 0,0 UV-I 0 W/m 15,4 km/h (3 Bft)
03.02.2013 22:40 4,9 C 3,4 C 99 % 15 lf 1010,4 hPa 0,0 l/m 0 min 0,0 UV-I 0 W/m 15,4 km/h (3 Bft)
03.02.2013 22:42 4,9 C 3,4 C 99 % 15 lf 1010,5 hPa 0,0 l/m 0 min 0,0 UV-I 0 W/m 15,4 km/h (3 Bft)
03.02.2013 22:44 4,8 C 3,4 C 99 % 15 lf 1010,6 hPa 0,0 l/m 0 min 0,0 UV-I 0 W/m 18,0 km/h (3 Bft)
03.02.2013 22:46 4,9 C 3,4 C 99 % 15 lf 1010,6 hPa 0,0 l/m 0 min 0,0 UV-I 0 W/m 20,6 km/h (4 Bft)
03.02.2013 22:48 4,9 C 3,4 C 99 % 15 lf 1010,6 hPa 0,0 l/m 0 min 0,0 UV-I 0 W/m 18,0 km/h (3 Bft)
03.02.2013 22:50 4,9 C 3,4 C 99 % 15 lf 1010,4 hPa 0,0 l/m 0 min 0,0 UV-I 0 W/m 18,0 km/h (3 Bft)
03.02.2013 22:52 4,8 C 3,4 C 99 % 15 lf 1010,6 hPa 0,0 l/m 0 min 0,0 UV-I 0 W/m 23,2 km/h (4 Bft)
03.02.2013 22:54 4,9 C 3,4 C 99 % 15 lf 1010,6 hPa 0,0 l/m 0 min 0,0 UV-I 0 W/m 20,6 km/h (4 Bft)
03.02.2013 22:56 4,9 C 3,4 C 99 % 15 lf 1010,5 hPa 0,0 l/m 0 min 0,0 UV-I 0 W/m 20,6 km/h (4 Bft)
03.02.2013 22:58 4,9 C 3,4 C 99 % 15 lf 1010,5 hPa 0,0 l/m 0 min 0,0 UV-I 0 W/m 12,9 km/h (3 Bft)
03.02.2013 23:00 4,9 C 3,4 C 99 % 15 lf 1010,5 hPa 0,2 l/m 0 min 0,0 UV-I 0 W/m 20,6 km/h (4 Bft)
03.02.2013 23:02 4,9 C 3,4 C 99 % 15 lf 1010,4 hPa 0,0 l/m 0 min 0,0 UV-I 0 W/m 23,2 km/h (4 Bft)
03.02.2013 23:06 4,9 C 3,4 C 99 % 15 lf 1010,5 hPa 0,0 l/m 0 min 0,0 UV-I 0 W/m 30,9 km/h (5 Bft)
03.02.2013 23:08 4,9 C 3,4 C 99 % 15 lf 1010,5 hPa 0,0 l/m 0 min 0,0 UV-I 0 W/m 18,0 km/h (3 Bft)
03.02.2013 23:10 4,9 C 3,4 C 99 % 15 lf 1010,5 hPa 0,0 l/m 0 min 0,0 UV-I 0 W/m 25,7 km/h (4 Bft)
03.02.2013 23:12 4,9 C 3,4 C 99 % 15 lf 1010,5 hPa 0,0 l/m 0 min 0,0 UV-I 0 W/m 15,4 km/h (3 Bft)
03.02.2013 23:14 4,9 C 3,4 C 99 % 15 lf 1010,5 hPa 0,0 l/m 0 min 0,0 UV-I 0 W/m 18,0 km/h (3 Bft)
03.02.2013 23:16 4,9 C 3,4 C 99 % 15 lf 1010,5 hPa 0,0 l/m 0 min 0,0 UV-I 0 W/m 23,2 km/h (4 Bft)
03.02.2013 23:18 4,9 C 3,4 C 99 % 15 lf 1010,4 hPa 0,0 l/m 0 min 0,0 UV-I 0 W/m 20,6 km/h (4 Bft)
03.02.2013 23:20 4,9 C 3,4 C 99 % 15 lf 1010,4 hPa 0,0 l/m 0 min 0,0 UV-I 0 W/m 23,2 km/h (4 Bft)
03.02.2013 23:22 5,0 C 3,4 C 99 % 15 lf 1010,4 hPa 0,0 l/m 0 min 0,0 UV-I 0 W/m 12,9 km/h (3 Bft)
03.02.2013 23:24 5,0 C 3,4 C 99 % 15 lf 1010,4 hPa 0,0 l/m 0 min 0,0 UV-I 0 W/m 18,0 km/h (3 Bft)
03.02.2013 23:26 5,0 C 3,4 C 99 % 15 lf 1010,3 hPa 0,0 l/m 0 min 0,0 UV-I 0 W/m 18,0 km/h (3 Bft)
03.02.2013 23:28 5,0 C 3,4 C 99 % 15 lf 1010,3 hPa 0,0 l/m 0 min 0,0 UV-I 0 W/m 15,4 km/h (3 Bft)
03.02.2013 23:30 5,0 C 4,0 C 99 % 15 lf 1010,3 hPa 0,2 l/m 0 min 0,0 UV-I 0 W/m 28,3 km/h (4 Bft)
03.02.2013 23:32 5,0 C 4,0 C 99 % 15 lf 1010,3 hPa 0,0 l/m 0 min 0,0 UV-I 0 W/m 12,9 km/h (3 Bft)
03.02.2013 23:34 5,1 C 4,0 C 99 % 15 lf 1010,3 hPa 0,0 l/m 0 min 0,0 UV-I 0 W/m 20,6 km/h (4 Bft)
03.02.2013 23:36 5,1 C 4,0 C 99 % 15 lf 1010,4 hPa 0,0 l/m 0 min 0,0 UV-I 0 W/m 18,0 km/h (3 Bft)
03.02.2013 23:38 5,1 C 4,0 C 99 % 15 lf 1010,3 hPa 0,0 l/m 0 min 0,0 UV-I 0 W/m 30,9 km/h (5 Bft)
03.02.2013 23:40 5,1 C 4,0 C 99 % 15 lf 1010,3 hPa 0,0 l/m 0 min 0,0 UV-I 0 W/m 20,6 km/h (4 Bft)
03.02.2013 23:42 5,1 C 4,0 C 99 % 15 lf 1010,3 hPa 0,0 l/m 0 min 0,0 UV-I 0 W/m 12,9 km/h (3 Bft)
03.02.2013 23:44 5,1 C 4,0 C 99 % 15 lf 1010,3 hPa 0,0 l/m 0 min 0,0 UV-I 0 W/m 28,3 km/h (4 Bft)
03.02.2013 23:46 5,1 C 4,0 C 99 % 15 lf 1010,2 hPa 0,0 l/m 0 min 0,0 UV-I 0 W/m 23,2 km/h (4 Bft)
03.02.2013 23:48 5,1 C 4,0 C 99 % 15 lf 1010,3 hPa 0,0 l/m 0 min 0,0 UV-I 0 W/m 15,4 km/h (3 Bft)
03.02.2013 23:50 5,1 C 4,0 C 99 % 15 lf 1010,2 hPa 0,0 l/m 0 min 0,0 UV-I 0 W/m 12,9 km/h (3 Bft)
03.02.2013 23:52 5,1 C 4,0 C 99 % 15 lf 1010,1 hPa 0,0 l/m 0 min 0,0 UV-I 0 W/m 20,6 km/h (4 Bft)
03.02.2013 23:54 5,1 C 4,0 C 99 % 15 lf 1010,4 hPa 0,0 l/m 0 min 0,0 UV-I 0 W/m 10,3 km/h (2 Bft)
03.02.2013 23:56 5,1 C 4,0 C 99 % 15 lf 1010,3 hPa 0,0 l/m 0 min 0,0 UV-I 0 W/m 33,5 km/h (5 Bft)
03.02.2013 23:58 5,2 C 4,0 C 99 % 15 lf 1010,3 hPa 0,0 l/m 0 min 0,0 UV-I 0 W/m 15,4 km/h (3 Bft)
_ Min-Zeit 08:18 03:08 14:18 00:42 23:52 - - - - 00:38
Minimum _ 2,1 C 1,2 C 74 % 0 lf 1010,1 hPa - - - - 0,0 km/h (0 Bft)
_ Max-Zeit 23:56 12:02 20:50 00:00 06:28 10:58 11:30 00:00 12:02 17:52
Maximum _ 5,2 C 4,0 C 99 % 15 lf 1018,9 hPa 0,2 l/m 2 min 0,0 UV-I 221 W/m 38,6 km/h
W-SW (5 Bft)
Durchschnitt _ 3,5 C 2,4 C 93 % 6 lf 1015,4 hPa #2,4 l/m #4 min. 0,0 UV-I 62 W/m 13,8 km/h (3 Bft)
© 2013 W. Hausmann